WA4BPS Weather Reports


Display with metric or nautical units.
time (UTC)temp
F
wind
direction
speed
MPH
gust
MPH
rain 1hr
in
rain 24hr
in
rain mn
in
humidity
%
barometer
mb
20260510152637 68 316 1.0 5.0 0.00 0.00 0.00 80 1014.1
20260510152556 68 318 2.0 5.0 0.00 0.00 0.00 80 1014.1
20260510152436 68 326 2.0 5.0 0.00 0.00 0.00 80 1014.1
20260510152334 68 320 2.0 5.0 0.00 0.00 0.00 81 1014.1
20260510152233 68 335 2.0 5.0 0.00 0.00 0.00 80 1014.1
20260510152133 68 326 0.0 5.0 0.00 0.00 0.00 80 1014.1
20260510152031 68 328 1.0 5.0 0.00 0.00 0.00 79 1014.1
20260510151930 68 328 3.0 5.0 0.00 0.00 0.00 78 1014.1
20260510151828 68 304 3.0 5.0 0.00 0.00 0.00 80 1014.1
20260510151731 68 326 2.0 5.0 0.00 0.00 0.00 80 1014.1
20260510151701 68 329 1.0 5.0 0.00 0.00 0.00 80 1014.1
20260510151538 68 328 1.0 5.0 0.00 0.00 0.00 81 1014.1
20260510151458 68 328 2.0 5.0 0.00 0.00 0.00 82 1014.1
20260510151335 67 325 2.0 5.0 0.00 0.00 0.00 82 1014.1
20260510151233 67 328 2.0 6.0 0.00 0.00 0.00 82 1014.1
20260510151131 67 328 1.0 6.0 0.00 0.00 0.00 82 1014.1
20260510151034 67 320 3.0 6.0 0.00 0.00 0.00 82 1014.1
20260510150932 67 328 2.0 6.0 0.00 0.00 0.00 82 1014.1
20260510150852 67 322 1.0 6.0 0.00 0.00 0.00 83 1014.1
20260510150730 67 326 3.0 6.0 0.00 0.00 0.00 83 1014.1
20260510150628 67 325 1.0 6.0 0.00 0.00 0.00 83 1014.1
20260510150526 67 328 1.0 6.0 0.00 0.00 0.00 83 1014.1
20260510150424 67 315 3.0 6.0 0.00 0.00 0.00 83 1014.1
20260510150327 67 328 4.0 6.0 0.00 0.00 0.00 84 1014.1
20260510150236 67 328 2.0 5.0 0.00 0.00 0.00 84 1014.1
20260510150146 67 318 1.0 5.0 0.00 0.00 0.00 83 1014.1
20260510150042 66 328 2.0 5.0 0.00 0.00 0.00 83 1014.1
20260510145941 66 329 1.0 3.0 0.00 0.00 0.00 84 1014.1
20260510145839 66 323 1.0 3.0 0.00 0.00 0.00 84 1014.2
20260510145758 66 328 0.0 3.0 0.00 0.00 0.00 85 1014.2
20260510145636 66 320 1.0 3.0 0.00 0.00 0.00 85 1014.2
20260510145537 66 325 1.0 3.0 0.00 0.00 0.00 85 1014.2
20260510145435 66 326 2.0 3.0 0.00 0.00 0.00 85 1014.2
20260510145354 66 328 1.0 5.0 0.00 0.00 0.00 85 1014.2
20260510145231 66 329 0.0 5.0 0.00 0.00 0.00 85 1014.2
20260510145128 66 328 0.0 5.0 0.00 0.00 0.00 85 1014.2
20260510145027 66 326 0.0 5.0 0.00 0.00 0.00 85 1014.2
20260510144927 66 329 0.0 5.0 0.00 0.00 0.00 85 1014.2
20260510144833 66 326 0.0 5.0 0.00 0.00 0.00 85 1014.2
20260510144741 66 329 0.0 5.0 0.00 0.00 0.00 85 1014.2
20260510144650 66 323 0.0 5.0 0.00 0.00 0.00 85 1014.2
20260510144547 66 320 2.0 5.0 0.00 0.00 0.00 85 1014.2
20260510144445 66 336 2.0 5.0 0.00 0.00 0.00 84 1014.2
20260510144342 66 328 1.0 5.0 0.00 0.00 0.00 85 1014.2
20260510144242 66 323 2.0 5.0 0.00 0.00 0.00 85 1014.2
20260510144201 66 305 1.0 5.0 0.00 0.00 0.00 85 1014.2
20260510144038 66 329 1.0 5.0 0.00 0.00 0.00 86 1014.2
20260510143955 66 328 0.0 5.0 0.00 0.00 0.00 86 1014.2
20260510143856 66 322 1.0 5.0 0.00 0.00 0.00 86 1014.2
20260510143734 66 311 2.0 5.0 0.00 0.00 0.00 86 1014.2
20260510143632 66 326 0.0 3.0 0.00 0.00 0.00 86 1014.2
20260510143531 66 322 0.0 3.0 0.00 0.00 0.00 86 1014.2
20260510143429 66 323 0.0 3.0 0.00 0.00 0.00 86 1014.2
20260510143328 65 328 0.0 3.0 0.00 0.00 0.00 86 1014.2
20260510143238 65 326 0.0 3.0 0.00 0.00 0.00 86 1014.2
20260510143151 65 329 0.0 3.0 0.00 0.00 0.00 86 1014.2
20260510143027 65 329 0.0 3.0 0.00 0.00 0.00 86 1014.2
20260510142925 65 328 3.0 4.0 0.00 0.00 0.00 86 1014.2
20260510142844 65 328 2.0 4.0 0.00 0.00 0.00 86 1014.2
20260510142744 65 328 1.0 4.0 0.00 0.00 0.00 86 1014.2
20260510142641 65 329 1.0 4.0 0.00 0.00 0.00 86 1014.2
20260510142538 65 326 1.0 4.0 0.00 0.00 0.00 86 1014.2
20260510142437 65 329 1.0 4.0 0.00 0.00 0.00 86 1014.2
20260510142340 65 326 2.0 4.0 0.00 0.00 0.00 86 1014.2
20260510142237 65 329 2.0 4.0 0.00 0.00 0.00 86 1014.2
20260510142135 65 328 2.0 4.0 0.00 0.00 0.00 86 1014.2
20260510142053 65 322 2.0 4.0 0.00 0.00 0.00 86 1014.2
20260510141930 65 325 3.0 4.0 0.00 0.00 0.00 86 1014.2
20260510141828 65 325 1.0 3.0 0.00 0.00 0.00 86 1014.2
20260510141747 65 330 2.0 3.0 0.00 0.00 0.00 86 1014.2
20260510141716 65 326 1.0 3.0 0.00 0.00 0.00 86 1014.2
20260510141534 65 316 1.0 3.0 0.00 0.00 0.00 86 1014.2
20260510141440 65 329 2.0 3.0 0.00 0.00 0.00 86 1014.2
20260510141338 65 328 2.0 3.0 0.00 0.00 0.00 86 1014.1
20260510141257 65 312 2.0 3.0 0.00 0.00 0.00 86 1014.1
20260510141155 65 329 1.0 2.0 0.00 0.00 0.00 86 1014.1
20260510141032 65 325 0.0 2.0 0.00 0.00 0.00 86 1014.1
20260510140951 65 323 0.0 2.0 0.00 0.00 0.00 86 1014.1
20260510140909 65 328 0.0 2.0 0.00 0.00 0.00 86 1014.1
20260510140805 65 329 1.0 2.0 0.00 0.00 0.00 86 1014.1
20260510140703 65 326 0.0 2.0 0.00 0.00 0.00 86 1014.1
20260510140544 65 328 1.0 2.0 0.00 0.00 0.00 86 1014.1
20260510140442 65 328 0.0 3.0 0.00 0.00 0.00 87 1014.1
20260510140340 65 305 0.0 3.0 0.00 0.00 0.00 87 1014.1
20260510140259 65 326 1.0 3.0 0.00 0.00 0.00 87 1014.1
20260510140210 65 329 1.0 3.0 0.00 0.00 0.00 87 1014.1
20260510140107 65 329 1.0 3.0 0.00 0.00 0.00 87 1014.1
20260510140005 65 332 0.0 3.0 0.00 0.00 0.00 87 1014.1
20260510135904 65 325 0.0 3.0 0.00 0.00 0.00 87 1013.9
20260510135741 65 326 0.0 3.0 0.00 0.00 0.00 87 1013.9
20260510135624 65 326 1.0 3.0 0.00 0.00 0.00 87 1013.9
20260510135543 65 322 1.0 2.0 0.00 0.00 0.00 87 1013.9
20260510135502 65 322 1.0 2.0 0.00 0.00 0.00 87 1013.9
20260510135340 65 329 1.0 2.0 0.00 0.00 0.00 87 1013.9
20260510135238 65 326 0.0 2.0 0.00 0.00 0.00 87 1013.9
20260510135138 65 328 0.0 2.0 0.00 0.00 0.00 87 1013.9
20260510135037 65 328 1.0 2.0 0.00 0.00 0.00 87 1013.9
20260510134956 65 329 1.0 2.0 0.00 0.00 0.00 87 1013.9
20260510134832 65 330 0.0 2.0 0.00 0.00 0.00 87 1013.9
20260510134754 65 326 0.0 2.0 0.00 0.00 0.00 88 1013.9
20260510134702 65 328 0.0 2.0 0.00 0.00 0.00 88 1013.9
20260510134539 65 328 0.0 3.0 0.00 0.00 0.00 88 1013.9
20260510134458 65 326 1.0 3.0 0.00 0.00 0.00 88 1013.9
20260510134335 65 335 1.0 3.0 0.00 0.00 0.00 88 1014.0
20260510134256 65 328 1.0 3.0 0.00 0.00 0.00 88 1014.0
20260510134134 65 326 0.0 3.0 0.00 0.00 0.00 87 1014.0
20260510134036 65 318 1.0 3.0 0.00 0.00 0.00 87 1014.0
20260510133938 65 328 1.0 7.0 0.00 0.00 0.00 87 1014.0
20260510133836 65 323 1.0 7.0 0.00 0.00 0.00 88 1014.0
20260510133734 65 318 1.0 7.0 0.00 0.00 0.00 88 1014.0
20260510133632 65 325 0.0 7.0 0.00 0.00 0.00 88 1014.0
20260510133531 64 326 1.0 7.0 0.00 0.00 0.00 88 1014.0
20260510133450 64 328 2.0 7.0 0.00 0.00 0.00 88 1014.0
20260510133327 64 326 1.0 7.0 0.00 0.00 0.00 88 1014.0
20260510133228 64 319 2.0 7.0 0.00 0.00 0.00 88 1014.0
20260510133202 64 333 3.0 7.0 0.00 0.00 0.00 88 1014.0
20260510133038 64 323 3.0 7.0 0.00 0.00 0.00 88 1014.0
20260510132936 64 340 2.0 7.0 0.00 0.00 0.00 88 1014.0
20260510132834 64 333 2.0 7.0 0.00 0.00 0.00 88 1013.8
20260510132734 64 349 1.0 7.0 0.00 0.00 0.00 88 1013.8
20260510132632 64 326 1.0 10.0 0.00 0.00 0.00 89 1013.8
20260510132552 64 347 0.0 10.0 0.00 0.00 0.00 89 1013.8
20260510132449 64 328 1.0 10.0 0.00 0.00 0.00 89 1013.8
20260510132330 64 339 5.0 10.0 0.00 0.00 0.00 89 1013.8
20260510132229 64 326 5.0 10.0 0.00 0.00 0.00 89 1013.8
20260510132148 64 342 4.0 10.0 0.00 0.00 0.00 89 1013.8
20260510132027 64 328 2.0 10.0 0.00 0.00 0.00 89 1013.8
20260510131925 64 326 3.0 10.0 0.00 0.00 0.00 90 1013.8
20260510131844 64 328 6.0 10.0 0.00 0.00 0.00 90 1013.8
20260510131735 64 325 1.0 6.0 0.00 0.00 0.00 90 1013.8
20260510131647 63 318 0.0 6.0 0.00 0.00 0.00 90 1013.8
20260510131525 63 332 2.0 6.0 0.00 0.00 0.00 91 1013.8
20260510131443 63 326 3.0 6.0 0.00 0.00 0.00 91 1013.8
20260510131343 63 322 3.0 6.0 0.00 0.00 0.00 91 1013.7
20260510131222 63 330 2.0 6.0 0.00 0.00 0.00 91 1013.7
20260510131124 63 325 3.0 6.0 0.00 0.00 0.00 91 1013.7
20260510131042 63 333 1.0 6.0 0.00 0.00 0.00 91 1013.7
20260510130944 63 333 3.0 6.0 0.00 0.00 0.00 92 1013.7
20260510130902 63 333 2.0 6.0 0.00 0.00 0.00 92 1013.7
20260510130800 63 326 2.0 6.0 0.00 0.00 0.00 92 1013.7
20260510130638 63 322 3.0 6.0 0.00 0.00 0.00 92 1013.7
20260510130538 63 336 0.0 6.0 0.00 0.00 0.00 92 1013.7
20260510130436 63 325 1.0 6.0 0.00 0.00 0.00 92 1013.7
20260510130355 63 326 1.0 6.0 0.00 0.00 0.00 92 1013.7
20260510130314 63 323 3.0 6.0 0.00 0.00 0.00 92 1013.7
20260510130223 63 329 3.0 6.0 0.00 0.00 0.00 92 1013.7
20260510130042 63 328 1.0 6.0 0.00 0.00 0.00 92 1013.7
20260510125941 63 328 3.0 6.0 0.00 0.00 0.00 92 1013.7
20260510125838 63 325 5.0 6.0 0.00 0.00 0.00 92 1013.6
20260510125736 63 329 1.0 6.0 0.00 0.00 0.00 92 1013.6
20260510125634 63 329 1.0 6.0 0.00 0.00 0.00 93 1013.6
20260510125553 62 329 1.0 6.0 0.00 0.00 0.00 93 1013.6
20260510125431 62 319 1.0 6.0 0.00 0.00 0.00 93 1013.6
20260510125330 62 325 1.0 6.0 0.00 0.00 0.00 93 1013.6
20260510125232 62 320 1.0 6.0 0.00 0.00 0.00 93 1013.6
20260510125150 62 329 5.0 6.0 0.00 0.00 0.00 93 1013.6
20260510125051 62 329 4.0 6.0 0.00 0.00 0.00 93 1013.6
20260510124929 62 329 1.0 6.0 0.00 0.00 0.00 93 1013.6
20260510124828 62 329 3.0 6.0 0.00 0.00 0.00 93 1013.6
20260510124739 62 329 2.0 6.0 0.00 0.00 0.00 93 1013.6
20260510124646 62 320 2.0 6.0 0.00 0.00 0.00 93 1013.6
20260510124543 62 328 4.0 6.0 0.00 0.00 0.00 93 1013.6
20260510124502 62 328 4.0 6.0 0.00 0.00 0.00 93 1013.6
20260510124403 62 325 3.0 5.0 0.00 0.00 0.00 93 1013.5
20260510124241 62 329 2.0 5.0 0.00 0.00 0.00 93 1013.5
20260510124139 62 326 1.0 5.0 0.00 0.00 0.00 93 1013.5
20260510124039 62 325 0.0 5.0 0.00 0.00 0.00 94 1013.5
20260510123938 62 322 1.0 5.0 0.00 0.00 0.00 94 1013.5
20260510123837 62 325 2.0 5.0 0.00 0.00 0.00 94 1013.5
20260510123735 62 325 3.0 5.0 0.00 0.00 0.00 93 1013.5
20260510123638 62 326 2.0 5.0 0.00 0.00 0.00 93 1013.5
20260510123535 62 319 3.0 5.0 0.00 0.00 0.00 93 1013.5
20260510123435 61 320 2.0 3.0 0.00 0.00 0.00 93 1013.5
20260510123333 61 323 2.0 3.0 0.00 0.00 0.00 93 1013.5
20260510123232 61 329 2.0 3.0 0.00 0.00 0.00 93 1013.5
20260510123205 61 323 1.0 3.0 0.00 0.00 0.00 93 1013.5
20260510123024 61 318 0.0 3.0 0.00 0.00 0.00 93 1013.5
20260510122927 61 320 2.0 3.0 0.00 0.00 0.00 93 1013.5
20260510122844 61 326 2.0 3.0 0.00 0.00 0.00 93 1013.4
20260510122803 61 320 1.0 3.0 0.00 0.00 0.00 93 1013.4
20260510122640 61 328 1.0 2.0 0.00 0.00 0.00 93 1013.4
20260510122541 61 330 2.0 2.0 0.00 0.00 0.00 93 1013.4
20260510122500 61 329 1.0 2.0 0.00 0.00 0.00 93 1013.4
20260510122337 61 316 1.0 2.0 0.00 0.00 0.00 93 1013.4
20260510122256 61 319 0.0 2.0 0.00 0.00 0.00 93 1013.4
20260510122153 61 315 0.0 2.0 0.00 0.00 0.00 93 1013.4
20260510122034 61 316 0.0 2.0 0.00 0.00 0.00 93 1013.4
20260510121952 61 319 0.0 2.0 0.00 0.00 0.00 93 1013.4
20260510121828 61 318 0.0 3.0 0.00 0.00 0.00 93 1013.4
20260510121725 61 322 1.0 3.0 0.00 0.00 0.00 93 1013.4
20260510121654 61 322 1.0 3.0 0.00 0.00 0.00 93 1013.4
20260510121532 61 319 0.0 3.0 0.00 0.00 0.00 93 1013.4
20260510121429 60 319 0.0 3.0 0.00 0.00 0.00 93 1013.4
20260510121348 60 320 1.0 3.0 0.00 0.00 0.00 92 1013.1
20260510121245 60 325 1.0 3.0 0.00 0.00 0.00 92 1013.1
20260510121142 60 323 1.0 3.0 0.00 0.00 0.00 92 1013.1
20260510121025 60 326 2.0 3.0 0.00 0.00 0.00 92 1013.1
20260510120943 60 322 2.0 3.0 0.00 0.00 0.00 92 1013.1
20260510120841 60 323 1.0 2.0 0.00 0.00 0.00 92 1013.1
20260510120739 60 320 1.0 2.0 0.00 0.00 0.00 92 1013.1
20260510120641 60 325 2.0 2.0 0.00 0.00 0.00 92 1013.1
20260510120559 60 316 1.0 2.0 0.00 0.00 0.00 92 1013.1
20260510120437 60 320 1.0 3.0 0.00 0.00 0.00 92 1013.1
20260510120340 60 319 0.0 3.0 0.00 0.00 0.00 92 1013.1
20260510120259 60 320 1.0 3.0 0.00 0.00 0.00 92 1013.1
20260510120209 60 316 1.0 3.0 0.00 0.00 0.00 92 1013.1
20260510120044 60 323 1.0 3.0 0.00 0.00 0.00 92 1013.1
20260510115942 60 328 1.0 3.0 0.00 0.00 0.00 92 1013.1
20260510115838 60 329 1.0 3.0 0.00 0.00 0.00 92 1012.8
20260510115736 60 329 2.0 3.0 0.00 0.00 0.00 92 1012.8
20260510115635 60 325 2.0 3.0 0.00 0.00 0.00 92 1012.8
20260510115534 60 323 2.0 3.0 0.00 0.00 0.00 92 1012.8
20260510115435 60 329 2.0 3.0 0.00 0.00 0.00 92 1012.8
20260510115333 60 325 2.0 3.0 0.00 0.00 0.00 92 1012.8
20260510115231 60 330 2.0 3.0 0.00 0.00 0.00 92 1012.8
20260510115130 60 329 2.0 3.0 0.00 0.00 0.00 92 1012.8
20260510115028 60 326 2.0 3.0 0.00 0.00 0.00 92 1012.8
20260510114945 60 332 1.0 3.0 0.00 0.00 0.00 92 1012.8
20260510114825 60 328 0.0 4.0 0.00 0.00 0.00 92 1012.8
20260510114739 60 326 1.0 4.0 0.00 0.00 0.00 92 1012.8
20260510114648 60 323 1.0 4.0 0.00 0.00 0.00 92 1012.8
20260510114526 60 328 1.0 4.0 0.00 0.00 0.00 92 1012.8
20260510114443 60 328 2.0 5.0 0.00 0.00 0.00 92 1012.8
20260510114342 60 328 2.0 5.0 0.00 0.00 0.00 92 1012.7
20260510114241 60 328 2.0 5.0 0.00 0.00 0.00 92 1012.7
20260510114139 60 330 2.0 5.0 0.00 0.00 0.00 92 1012.7
20260510114038 60 330 2.0 5.0 0.00 0.00 0.00 92 1012.7
20260510113941 60 330 2.0 5.0 0.00 0.00 0.00 92 1012.7
20260510113839 60 329 1.0 5.0 0.00 0.00 0.00 92 1012.7
20260510113737 60 329 1.0 5.0 0.00 0.00 0.00 92 1012.7
20260510113636 60 329 3.0 5.0 0.00 0.00 0.00 92 1012.7
20260510113554 60 330 3.0 5.0 0.00 0.00 0.00 92 1012.7
20260510113517 60 330 2.0 5.0 0.00 0.00 0.00 92 1012.7
20260510113414 60 330 2.0 5.0 0.00 0.00 0.00 92 1012.7
20260510113312 60 330 2.0 5.0 0.00 0.00 0.00 92 1012.7
20260510113202 60 332 2.0 6.0 0.00 0.00 0.00 92 1012.7
20260510113042 60 329 2.0 6.0 0.00 0.00 0.00 92 1012.7
20260510112939 60 330 3.0 6.0 0.00 0.00 0.00 92 1012.7
20260510112838 60 332 2.0 6.0 0.00 0.00 0.00 92 1012.5
20260510112736 60 329 2.0 6.0 0.00 0.00 0.00 92 1012.5
20260510112634 60 330 3.0 6.0 0.00 0.00 0.00 92 1012.5
20260510112532 60 325 2.0 6.0 0.00 0.00 0.00 92 1012.5
20260510112431 60 332 2.0 6.0 0.00 0.00 0.00 92 1012.5
20260510112354 60 325 3.0 6.0 0.00 0.00 0.00 92 1012.5
20260510112232 60 325 2.0 3.0 0.00 0.00 0.00 92 1012.5
20260510112151 60 332 1.0 3.0 0.00 0.00 0.00 92 1012.5
20260510112049 60 328 1.0 3.0 0.00 0.00 0.00 92 1012.5
20260510111926 60 329 1.0 4.0 0.00 0.00 0.00 92 1012.5
20260510111827 60 332 1.0 6.0 0.00 0.00 0.00 92 1012.5
20260510111735 60 328 3.0 6.0 0.00 0.00 0.00 92 1012.5
20260510111645 60 322 1.0 6.0 0.00 0.00 0.00 92 1012.5
20260510111527 60 320 0.0 6.0 0.00 0.00 0.00 92 1012.5
20260510111445 60 326 1.0 6.0 0.00 0.00 0.00 92 1012.5
20260510111342 60 326 2.0 6.0 0.00 0.00 0.00 92 1012.2
20260510111241 60 323 2.0 6.0 0.00 0.00 0.00 92 1012.2
20260510111139 60 330 2.0 6.0 0.00 0.00 0.00 91 1012.2
20260510111039 60 326 3.0 6.0 0.00 0.00 0.00 91 1012.2
20260510110936 60 330 4.0 6.0 0.00 0.00 0.00 92 1012.2
20260510110836 60 332 3.0 6.0 0.00 0.00 0.00 91 1012.2
20260510110754 60 333 2.0 6.0 0.00 0.00 0.00 92 1012.2
20260510110657 60 330 2.0 6.0 0.00 0.00 0.00 91 1012.2
20260510110534 60 329 2.0 6.0 0.00 0.00 0.00 92 1012.2
20260510110433 60 332 3.0 6.0 0.00 0.00 0.00 91 1012.2
20260510110331 60 329 3.0 6.0 0.00 0.00 0.00 91 1012.2
20260510110240 60 332 3.0 6.0 0.00 0.00 0.00 91 1012.2
20260510110151 60 332 1.0 5.0 0.00 0.00 0.00 91 1012.2
20260510110027 60 325 2.0 5.0 0.00 0.00 0.00 91 1012.2
20260510105931 60 330 4.0 5.0 0.00 0.00 0.00 91 1012.2
20260510105830 60 329 3.0 5.0 0.00 0.00 0.00 91 1011.9
20260510105748 60 330 1.0 5.0 0.00 0.00 0.00 91 1011.9
20260510105707 60 330 0.0 5.0 0.00 0.00 0.00 91 1011.9
20260510105604 60 328 1.0 5.0 0.00 0.00 0.00 91 1011.9
20260510105441 60 326 2.0 5.0 0.00 0.00 0.00 91 1011.9
20260510105339 60 316 1.0 5.0 0.00 0.00 0.00 91 1011.9
20260510105237 60 330 0.0 5.0 0.00 0.00 0.00 91 1011.9
20260510105136 60 328 1.0 5.0 0.00 0.00 0.00 91 1011.9
20260510105038 60 332 2.0 7.0 0.00 0.00 0.00 91 1011.9
20260510104957 60 328 2.0 7.0 0.00 0.00 0.00 91 1011.9
20260510104834 60 330 0.0 7.0 0.00 0.00 0.00 91 1011.9
20260510104743 60 332 0.0 7.0 0.00 0.00 0.00 91 1011.9
20260510104653 60 330 1.0 7.0 0.00 0.00 0.00 91 1011.9
20260510104529 60 329 2.0 7.0 0.00 0.00 0.00 91 1011.9
20260510104448 60 332 3.0 7.0 0.00 0.00 0.00 91 1011.9
20260510104324 60 328 2.0 7.0 0.00 0.00 0.00 91 1011.7
20260510104227 60 330 3.0 7.0 0.00 0.00 0.00 91 1011.7
20260510104126 60 333 3.0 6.0 0.00 0.00 0.00 91 1011.7
20260510104024 60 332 2.0 5.0 0.00 0.00 0.00 91 1011.7
20260510103924 60 326 2.0 3.0 0.00 0.00 0.00 91 1011.7
20260510103843 60 332 1.0 6.0 0.00 0.00 0.00 91 1011.7
20260510103741 60 330 1.0 7.0 0.00 0.00 0.00 91 1011.7
20260510103640 60 332 0.0 7.0 0.00 0.00 0.00 91 1011.7
20260510103541 60 332 1.0 7.0 0.00 0.00 0.00 91 1011.7
20260510103439 60 332 1.0 7.0 0.00 0.00 0.00 91 1011.7
20260510103359 60 330 0.0 7.0 0.00 0.00 0.00 91 1011.7
20260510103317 60 330 0.0 7.0 0.00 0.00 0.00 91 1011.7
20260510103226 60 332 1.0 7.0 0.00 0.00 0.00 91 1011.7
20260510103040 60 330 2.0 7.0 0.00 0.00 0.00 91 1011.7
20260510102940 60 319 5.0 7.0 0.00 0.00 0.00 91 1011.7
20260510102839 60 320 2.0 7.0 0.00 0.00 0.00 91 1011.6
20260510102805 60 332 1.0 7.0 0.00 0.00 0.00 91 1011.6
20260510102706 60 330 2.0 7.0 0.00 0.00 0.00 90 1011.6
20260510102604 60 330 4.0 7.0 0.00 0.00 0.00 90 1011.6
20260510102441 60 330 4.0 7.0 0.00 0.00 0.00 90 1011.6
20260510102338 60 332 4.0 6.0 0.00 0.00 0.00 90 1011.6
20260510102237 60 332 2.0 9.0 0.00 0.00 0.00 90 1011.6
20260510102155 60 330 0.0 9.0 0.00 0.00 0.00 90 1011.6
20260510102033 60 330 1.0 9.0 0.00 0.00 0.00 90 1011.6
20260510101931 60 332 1.0 9.0 0.00 0.00 0.00 90 1011.6
20260510101834 60 332 1.0 9.0 0.00 0.00 0.00 90 1011.6
20260510101733 60 332 1.0 9.0 0.00 0.00 0.00 90 1011.6
20260510101702 60 330 2.0 9.0 0.00 0.00 0.00 90 1011.6
20260510101539 60 337 4.0 9.0 0.00 0.00 0.00 90 1011.6
20260510101458 60 330 3.0 9.0 0.00 0.00 0.00 90 1011.6
20260510101355 60 330 3.0 9.0 0.00 0.00 0.00 90 1011.4
20260510101233 60 333 3.0 7.0 0.00 0.00 0.00 90 1011.4
20260510101131 60 332 1.0 7.0 0.00 0.00 0.00 90 1011.4
20260510101032 60 332 2.0 7.0 0.00 0.00 0.00 90 1011.4
20260510100931 60 332 1.0 7.0 0.00 0.00 0.00 90 1011.4
20260510100829 60 330 4.0 7.0 0.00 0.00 0.00 90 1011.4
20260510100730 60 332 3.0 7.0 0.00 0.00 0.00 90 1011.4
20260510100628 60 312 4.0 7.0 0.00 0.00 0.00 90 1011.4
20260510100527 60 308 1.0 7.0 0.00 0.00 0.00 90 1011.4
20260510100429 60 330 3.0 7.0 0.00 0.00 0.00 90 1011.4
20260510100327 61 329 2.0 7.0 0.00 0.00 0.00 90 1011.4
20260510100246 61 336 2.0 3.0 0.00 0.00 0.00 90 1011.4
20260510100218 61 315 2.0 5.0 0.00 0.00 0.00 90 1011.4
20260510100032 61 332 2.0 5.0 0.00 0.00 0.00 90 1011.4
20260510095952 61 330 1.0 5.0 0.00 0.00 0.00 90 1011.4
20260510095830 61 332 2.0 5.0 0.00 0.00 0.00 90 1011.3
20260510095729 61 332 1.0 5.0 0.00 0.00 0.00 90 1011.3
20260510095631 61 333 1.0 5.0 0.00 0.00 0.00 90 1011.3
20260510095529 61 332 2.0 5.0 0.00 0.00 0.00 90 1011.3
20260510095427 61 319 2.0 6.0 0.00 0.00 0.00 90 1011.3
20260510095325 61 330 1.0 6.0 0.00 0.00 0.00 90 1011.3
20260510095224 61 332 2.0 6.0 0.00 0.00 0.00 90 1011.3
20260510095126 61 330 2.0 6.0 0.00 0.00 0.00 90 1011.3
20260510095045 61 332 2.0 8.0 0.00 0.00 0.00 90 1011.3
20260510095003 61 332 2.0 8.0 0.00 0.00 0.00 90 1011.3
20260510094825 61 332 3.0 8.0 0.00 0.00 0.00 90 1011.3
20260510094736 61 332 2.0 8.0 0.00 0.00 0.00 90 1011.3
20260510094645 61 332 4.0 8.0 0.00 0.00 0.00 90 1011.3
20260510094542 61 329 5.0 8.0 0.00 0.00 0.00 90 1011.3
20260510094502 61 332 4.0 8.0 0.00 0.00 0.00 90 1011.3
20260510094338 61 332 3.0 8.0 0.00 0.00 0.00 90 1011.3
20260510094237 61 332 3.0 8.0 0.00 0.00 0.00 90 1011.3
20260510094155 61 330 5.0 8.0 0.00 0.00 0.00 90 1011.3
20260510094053 61 330 2.0 8.0 0.00 0.00 0.00 90 1011.3
20260510093935 61 332 2.0 8.0 0.00 0.00 0.00 90 1011.3
20260510093834 61 330 2.0 8.0 0.00 0.00 0.00 90 1011.3
20260510093732 61 332 2.0 8.0 0.00 0.00 0.00 90 1011.3
20260510093631 61 329 2.0 8.0 0.00 0.00 0.00 90 1011.3
20260510093529 61 332 4.0 8.0 0.00 0.00 0.00 90 1011.3
20260510093427 61 332 2.0 8.0 0.00 0.00 0.00 90 1011.3
20260510093325 61 332 4.0 8.0 0.00 0.00 0.00 90 1011.3
20260510093239 61 332 2.0 7.0 0.00 0.00 0.00 90 1011.3
20260510093149 61 330 2.0 7.0 0.00 0.00 0.00 90 1011.3
20260510093046 61 323 2.0 7.0 0.00 0.00 0.00 90 1011.3
20260510092924 61 330 4.0 7.0 0.00 0.00 0.00 90 1011.3
20260510092842 61 330 4.0 7.0 0.00 0.00 0.00 90 1011.4
20260510092741 61 328 5.0 7.0 0.00 0.00 0.00 90 1011.4
20260510092700 61 332 3.0 6.0 0.00 0.00 0.00 90 1011.4
20260510092538 61 332 2.0 7.0 0.00 0.00 0.00 90 1011.4
20260510092437 61 329 2.0 7.0 0.00 0.00 0.00 90 1011.4
20260510092341 61 332 4.0 7.0 0.00 0.00 0.00 90 1011.4
20260510092238 61 332 3.0 7.0 0.00 0.00 0.00 90 1011.4
20260510092137 61 332 3.0 7.0 0.00 0.00 0.00 90 1011.4
20260510092035 61 330 4.0 7.0 0.00 0.00 0.00 90 1011.4
20260510091933 61 332 3.0 7.0 0.00 0.00 0.00 90 1011.4
20260510091832 61 330 3.0 7.0 0.00 0.00 0.00 90 1011.4
20260510091734 61 332 4.0 7.0 0.00 0.00 0.00 90 1011.4
20260510091703 61 330 4.0 7.0 0.00 0.00 0.00 90 1011.4
20260510091540 61 332 2.0 6.0 0.00 0.00 0.00 90 1011.4
20260510091438 61 332 4.0 8.0 0.00 0.00 0.00 90 1011.4
20260510091336 61 332 3.0 8.0 0.00 0.00 0.00 90 1011.4
20260510091236 61 308 2.0 8.0 0.00 0.00 0.00 89 1011.4
20260510091134 61 330 2.0 8.0 0.00 0.00 0.00 89 1011.4
20260510091038 61 333 2.0 8.0 0.00 0.00 0.00 89 1011.4
20260510090937 61 330 2.0 8.0 0.00 0.00 0.00 89 1011.4
20260510090837 61 301 3.0 8.0 0.00 0.00 0.00 89 1011.4
20260510090735 61 329 4.0 8.0 0.00 0.00 0.00 89 1011.4
20260510090634 61 328 5.0 8.0 0.00 0.00 0.00 89 1011.4
20260510090530 61 332 5.0 8.0 0.00 0.00 0.00 89 1011.4
20260510090428 61 330 4.0 7.0 0.00 0.00 0.00 89 1011.4
20260510090325 61 330 4.0 7.0 0.00 0.00 0.00 89 1011.4
20260510090227 61 330 4.0 7.0 0.00 0.00 0.00 89 1011.4
20260510090200 61 305 4.0 7.0 0.00 0.00 0.00 89 1011.4
20260510090036 61 332 3.0 7.0 0.00 0.00 0.00 89 1011.4
20260510085935 61 320 3.0 7.0 0.00 0.00 0.00 89 1011.4
20260510085833 61 313 4.0 7.0 0.00 0.00 0.00 89 1011.1
20260510085731 61 330 3.0 7.0 0.00 0.00 0.00 89 1011.1
20260510085631 61 330 3.0 7.0 0.00 0.00 0.00 89 1011.1
20260510085534 61 332 4.0 7.0 0.00 0.00 0.00 89 1011.1
20260510085432 61 299 3.0 7.0 0.00 0.00 0.00 89 1011.1
20260510085333 61 330 4.0 7.0 0.00 0.00 0.00 89 1011.1
20260510085231 61 332 5.0 7.0 0.00 0.00 0.00 89 1011.1
20260510085150 61 332 5.0 7.0 0.00 0.00 0.00 89 1011.1
20260510085050 61 330 4.0 7.0 0.00 0.00 0.00 89 1011.1
20260510084930 61 329 4.0 7.0 0.00 0.00 0.00 89 1011.1
20260510084833 61 325 4.0 8.0 0.00 0.00 0.00 89 1011.1
20260510084731 61 332 5.0 8.0 0.00 0.00 0.00 89 1011.1
20260510084700 61 332 5.0 8.0 0.00 0.00 0.00 89 1011.1
20260510084538 62 330 4.0 8.0 0.00 0.00 0.00 89 1011.1
20260510084436 62 332 4.0 8.0 0.00 0.00 0.00 89 1011.1
20260510084333 62 332 3.0 8.0 0.00 0.00 0.00 89 1010.8
20260510084253 62 332 3.0 8.0 0.00 0.00 0.00 89 1010.8
20260510084133 62 332 4.0 8.0 0.00 0.00 0.00 89 1010.8
20260510084036 62 333 4.0 8.0 0.00 0.00 0.00 89 1010.8
20260510083935 62 330 4.0 8.0 0.00 0.00 0.00 89 1010.8
20260510083833 62 332 4.0 8.0 0.00 0.00 0.00 89 1010.8
20260510083732 62 332 3.0 8.0 0.00 0.00 0.00 89 1010.8
20260510083631 62 330 3.0 8.0 0.00 0.00 0.00 89 1010.8
20260510083528 62 332 3.0 8.0 0.00 0.00 0.00 89 1010.8
20260510083430 62 330 2.0 8.0 0.00 0.00 0.00 89 1010.8
20260510083328 62 332 3.0 8.0 0.00 0.00 0.00 89 1010.8
20260510083238 62 332 4.0 8.0 0.00 0.00 0.00 89 1010.8
20260510083148 62 328 5.0 8.0 0.00 0.00 0.00 89 1010.8
20260510083045 62 330 3.0 7.0 0.00 0.00 0.00 89 1010.8
20260510082942 62 325 4.0 7.0 0.00 0.00 0.00 89 1010.8
20260510082900 62 332 4.0 7.0 0.00 0.00 0.00 89 1010.7
20260510082738 62 330 3.0 7.0 0.00 0.00 0.00 89 1010.7
20260510082637 62 330 4.0 7.0 0.00 0.00 0.00 89 1010.7
20260510082539 62 312 5.0 7.0 0.00 0.00 0.00 88 1010.7
20260510082459 62 326 4.0 7.0 0.00 0.00 0.00 88 1010.7
20260510082336 62 330 3.0 7.0 0.00 0.00 0.00 88 1010.7
20260510082254 62 333 4.0 7.0 0.00 0.00 0.00 88 1010.7
20260510082131 62 325 3.0 7.0 0.00 0.00 0.00 88 1010.7
20260510082030 62 329 4.0 7.0 0.00 0.00 0.00 88 1010.7
20260510081928 62 329 3.0 8.0 0.00 0.00 0.00 88 1010.7
20260510081826 62 325 5.0 8.0 0.00 0.00 0.00 88 1010.7
20260510081732 62 332 3.0 8.0 0.00 0.00 0.00 88 1010.7
20260510081702 62 330 4.0 8.0 0.00 0.00 0.00 88 1010.7
20260510081541 62 329 5.0 8.0 0.00 0.00 0.00 88 1010.7
20260510081500 62 315 5.0 8.0 0.00 0.00 0.00 88 1010.7
20260510081337 62 328 3.0 8.0 0.00 0.00 0.00 88 1010.6
20260510081234 62 330 2.0 8.0 0.00 0.00 0.00 88 1010.6
20260510081133 62 309 5.0 8.0 0.00 0.00 0.00 88 1010.6
20260510081035 62 312 2.0 8.0 0.00 0.00 0.00 88 1010.6
20260510080933 62 319 3.0 8.0 0.00 0.00 0.00 88 1010.6
20260510080832 62 329 4.0 8.0 0.00 0.00 0.00 88 1010.6
20260510080730 62 330 5.0 8.0 0.00 0.00 0.00 88 1010.6
20260510080629 62 329 4.0 7.0 0.00 0.00 0.00 88 1010.6
20260510080527 62 330 3.0 7.0 0.00 0.00 0.00 88 1010.6
20260510080425 62 330 4.0 7.0 0.00 0.00 0.00 87 1010.6
20260510080328 62 329 2.0 7.0 0.00 0.00 0.00 87 1010.6
20260510080227 62 328 3.0 7.0 0.00 0.00 0.00 87 1010.6
20260510080155 62 302 2.0 8.0 0.00 0.00 0.00 87 1010.6
20260510080032 62 330 2.0 8.0 0.00 0.00 0.00 87 1010.6
20260510075950 62 333 3.0 8.0 0.00 0.00 0.00 87 1010.6
20260510075830 62 332 4.0 8.0 0.00 0.00 0.00 87 1010.4
20260510075730 62 329 3.0 8.0 0.00 0.00 0.00 87 1010.4
20260510075629 62 329 2.0 8.0 0.00 0.00 0.00 87 1010.4
20260510075531 62 330 3.0 8.0 0.00 0.00 0.00 87 1010.4
20260510075429 62 326 5.0 8.0 0.00 0.00 0.00 87 1010.4
20260510075328 62 325 5.0 8.0 0.00 0.00 0.00 87 1010.4
20260510075226 62 332 5.0 8.0 0.00 0.00 0.00 87 1010.4
20260510075143 62 313 5.0 8.0 0.00 0.00 0.00 87 1010.4
20260510075102 62 320 3.0 8.0 0.00 0.00 0.00 87 1010.4
20260510074938 62 328 3.0 9.0 0.00 0.00 0.00 87 1010.4
20260510074821 62 322 5.0 9.0 0.00 0.00 0.00 87 1010.4
20260510074734 62 329 4.0 9.0 0.00 0.00 0.00 87 1010.4
20260510074644 62 280 6.0 9.0 0.00 0.00 0.00 87 1010.4
20260510074545 62 323 4.0 9.0 0.00 0.00 0.00 86 1010.4
20260510074442 62 280 4.0 10.0 0.00 0.00 0.00 86 1010.4
20260510074341 62 316 3.0 10.0 0.00 0.00 0.00 86 1010.4
20260510074239 62 332 6.0 10.0 0.00 0.00 0.00 86 1010.4
20260510074138 62 302 5.0 10.0 0.00 0.00 0.00 86 1010.4
20260510074040 62 330 4.0 10.0 0.00 0.00 0.00 86 1010.4
20260510073938 62 318 2.0 10.0 0.00 0.00 0.00 86 1010.4
20260510073837 62 302 1.0 10.0 0.00 0.00 0.00 86 1010.4
20260510073755 62 294 2.0 10.0 0.00 0.00 0.00 86 1010.4
20260510073633 62 330 4.0 10.0 0.00 0.00 0.00 86 1010.4
20260510073530 62 332 3.0 6.0 0.00 0.00 0.00 86 1010.4
20260510073449 62 332 3.0 10.0 0.00 0.00 0.00 86 1010.4
20260510073346 62 332 4.0 10.0 0.00 0.00 0.00 86 1010.4
20260510073238 62 332 2.0 10.0 0.00 0.00 0.00 86 1010.4
20260510073146 62 332 4.0 10.0 0.00 0.00 0.00 86 1010.4
20260510073044 62 329 5.0 10.0 0.00 0.00 0.00 86 1010.4
20260510072942 62 330 4.0 10.0 0.00 0.00 0.00 86 1010.4
20260510072841 62 336 4.0 10.0 0.00 0.00 0.00 86 1010.4
20260510072740 62 330 5.0 10.0 0.00 0.00 0.00 86 1010.4
20260510072659 62 318 3.0 10.0 0.00 0.00 0.00 86 1010.4
20260510072537 62 329 4.0 10.0 0.00 0.00 0.00 86 1010.4
20260510072439 62 309 4.0 10.0 0.00 0.00 0.00 86 1010.4
20260510072337 62 332 3.0 10.0 0.00 0.00 0.00 86 1010.4
20260510072236 62 330 5.0 10.0 0.00 0.00 0.00 86 1010.4
20260510072134 62 277 5.0 10.0 0.00 0.00 0.00 86 1010.4
20260510072032 62 328 4.0 10.0 0.00 0.00 0.00 86 1010.4
20260510071930 62 280 4.0 10.0 0.00 0.00 0.00 86 1010.4
20260510071834 62 288 4.0 8.0 0.00 0.00 0.00 86 1010.4
20260510071733 62 332 5.0 8.0 0.00 0.00 0.00 86 1010.4
20260510071703 62 330 4.0 8.0 0.00 0.00 0.00 86 1010.4
20260510071541 62 330 5.0 8.0 0.00 0.00 0.00 86 1010.4
20260510071500 62 325 4.0 8.0 0.00 0.00 0.00 86 1010.4
20260510071337 62 308 4.0 8.0 0.00 0.00 0.00 86 1010.3
20260510071256 62 328 4.0 8.0 0.00 0.00 0.00 86 1010.3
20260510071153 62 329 3.0 9.0 0.00 0.00 0.00 86 1010.3
20260510071031 62 282 3.0 9.0 0.00 0.00 0.00 86 1010.3
20260510070934 62 311 4.0 9.0 0.00 0.00 0.00 85 1010.3
20260510070853 62 285 4.0 9.0 0.00 0.00 0.00 85 1010.3
20260510070733 62 329 3.0 11.0 0.00 0.00 0.00 85 1010.3
20260510070630 62 304 4.0 11.0 0.00 0.00 0.00 85 1010.3
20260510070529 62 325 4.0 11.0 0.00 0.00 0.00 85 1010.3
20260510070448 62 288 4.0 11.0 0.00 0.00 0.00 85 1010.3
20260510070327 62 323 7.0 11.0 0.00 0.00 0.00 85 1010.3
20260510070236 62 332 5.0 11.0 0.00 0.00 0.00 85 1010.3
20260510070150 62 311 5.0 11.0 0.00 0.00 0.00 85 1010.3
20260510070047 62 296 2.0 11.0 0.00 0.00 0.00 85 1010.3
20260510065945 62 319 5.0 11.0 0.00 0.00 0.00 85 1010.3
20260510065844 62 282 6.0 11.0 0.00 0.00 0.00 85 1010.4
20260510065802 62 272 4.0 10.0 0.00 0.00 0.00 85 1010.4
20260510065638 62 301 4.0 10.0 0.00 0.00 0.00 85 1010.4
20260510065536 62 330 4.0 10.0 0.00 0.00 0.00 84 1010.4
20260510065435 62 312 4.0 10.0 0.00 0.00 0.00 84 1010.4
20260510065334 62 275 3.0 10.0 0.00 0.00 0.00 84 1010.4
20260510065258 62 296 4.0 10.0 0.00 0.00 0.00 84 1010.4
20260510065136 62 265 5.0 10.0 0.00 0.00 0.00 84 1010.4
20260510065033 62 332 3.0 8.0 0.00 0.00 0.00 84 1010.4
20260510064931 62 260 5.0 8.0 0.00 0.00 0.00 84 1010.4
20260510064829 62 277 3.0 8.0 0.00 0.00 0.00 84 1010.4
20260510064738 62 322 3.0 8.0 0.00 0.00 0.00 84 1010.4
20260510064646 62 309 3.0 8.0 0.00 0.00 0.00 84 1010.4
20260510064543 62 332 3.0 8.0 0.00 0.00 0.00 84 1010.4
20260510064446 62 294 4.0 8.0 0.00 0.00 0.00 84 1010.4
20260510064344 62 329 6.0 8.0 0.00 0.00 0.00 84 1011.3
20260510064303 62 243 5.0 8.0 0.00 0.00 0.00 84 1011.3
20260510064141 62 308 4.0 8.0 0.00 0.00 0.00 83 1011.3
20260510064104 62 322 3.0 8.0 0.00 0.00 0.00 83 1011.3
20260510063940 62 253 4.0 8.0 0.00 0.00 0.00 83 1011.3
20260510063839 62 330 4.0 8.0 0.00 0.00 0.00 83 1011.3
20260510063737 63 292 3.0 7.0 0.00 0.00 0.00 83 1011.3
20260510063640 63 332 5.0 7.0 0.00 0.00 0.00 83 1011.3
20260510063558 63 308 5.0 7.0 0.00 0.00 0.00 83 1011.3
20260510063458 63 304 5.0 10.0 0.00 0.00 0.00 83 1011.3
20260510063334 63 316 5.0 11.0 0.00 0.00 0.00 83 1011.3
20260510063232 63 318 3.0 11.0 0.00 0.00 0.00 83 1011.3
20260510063204 63 323 4.0 11.0 0.00 0.00 0.00 83 1011.3
20260510063039 63 306 3.0 11.0 0.00 0.00 0.00 83 1011.3
20260510063000 63 268 3.0 11.0 0.00 0.00 0.00 83 1011.3
20260510062837 63 257 3.0 11.0 0.00 0.00 0.00 83 1011.4
20260510062740 63 326 5.0 11.0 0.00 0.00 0.00 83 1011.4
20260510062658 63 287 7.0 11.0 0.00 0.00 0.00 83 1011.4
20260510062554 63 261 5.0 11.0 0.00 0.00 0.00 82 1011.4
20260510062432 63 277 5.0 11.0 0.00 0.00 0.00 82 1011.4
20260510062331 63 308 5.0 11.0 0.00 0.00 0.00 82 1011.4
20260510062230 63 329 5.0 11.0 0.00 0.00 0.00 82 1011.4
20260510062129 63 329 5.0 11.0 0.00 0.00 0.00 82 1011.4
20260510062035 63 254 6.0 11.0 0.00 0.00 0.00 82 1011.4
20260510061934 63 328 6.0 11.0 0.00 0.00 0.00 82 1011.4
20260510061832 63 332 6.0 10.0 0.00 0.00 0.00 82 1011.4
20260510061742 63 274 5.0 11.0 0.00 0.00 0.00 82 1011.4
20260510061651 63 329 5.0 11.0 0.00 0.00 0.00 82 1011.4
20260510061529 63 298 4.0 11.0 0.00 0.00 0.00 82 1011.4
20260510061448 63 329 8.0 11.0 0.00 0.00 0.00 82 1011.4
20260510061346 63 302 6.0 11.0 0.00 0.00 0.00 82 1010.7
20260510061243 63 306 5.0 11.0 0.00 0.00 0.00 82 1010.7
20260510061146 63 329 5.0 11.0 0.00 0.00 0.00 82 1010.7
20260510061104 63 308 5.0 11.0 0.00 0.00 0.00 82 1010.7
20260510060942 63 289 5.0 11.0 0.00 0.00 0.00 81 1010.7
20260510060840 63 320 4.0 11.0 0.00 0.00 0.00 81 1010.7
20260510060738 63 298 4.0 12.0 0.00 0.00 0.00 81 1010.7
20260510060636 63 313 5.0 13.0 0.00 0.00 0.00 81 1010.7
20260510060535 63 280 4.0 13.0 0.00 0.00 0.00 81 1010.7
20260510060438 63 299 5.0 13.0 0.00 0.00 0.00 81 1010.7
20260510060336 63 318 5.0 13.0 0.00 0.00 0.00 81 1010.7
20260510060235 63 258 5.0 13.0 0.00 0.00 0.00 81 1010.7
20260510060206 63 260 5.0 13.0 0.00 0.00 0.00 81 1010.7
20260510060000 63 299 7.0 13.0 0.00 0.00 0.00 81 1010.7
20260510055839 63 328 7.0 13.0 0.00 0.00 0.00 81 1010.7
20260510055737 63 308 9.0 13.0 0.00 0.00 0.00 81 1010.7
20260510055656 63 325 5.0 12.0 0.00 0.00 0.00 81 1010.7
20260510055537 63 304 5.0 12.0 0.00 0.00 0.00 81 1010.7
20260510055436 63 320 6.0 11.0 0.00 0.00 0.00 81 1010.7
20260510055335 63 304 6.0 11.0 0.00 0.00 0.00 81 1010.7
20260510055253 63 285 8.0 11.0 0.00 0.00 0.00 81 1010.7
20260510055131 63 292 7.0 10.0 0.00 0.00 0.00 81 1010.7
20260510055050 63 282 7.0 10.0 0.00 0.00 0.00 80 1010.7
20260510054927 63 332 6.0 11.0 0.00 0.00 0.00 80 1010.7
20260510054830 63 325 8.0 11.0 0.00 0.00 0.00 80 1010.7
20260510054728 63 313 5.0 11.0 0.00 0.00 0.00 80 1010.7
20260510054658 63 330 4.0 11.0 0.00 0.00 0.00 80 1010.7
20260510054537 63 322 5.0 11.0 0.00 0.00 0.00 80 1010.7
20260510054455 63 330 6.0 12.0 0.00 0.00 0.00 80 1010.7
20260510054333 63 318 6.0 12.0 0.00 0.00 0.00 80 1010.8
20260510054232 63 274 5.0 12.0 0.00 0.00 0.00 80 1010.8
20260510054151 63 251 6.0 12.0 0.00 0.00 0.00 80 1010.8
20260510054032 63 330 7.0 12.0 0.00 0.00 0.00 80 1010.8
20260510053931 63 330 6.0 12.0 0.00 0.00 0.00 80 1010.8
20260510053854 63 332 7.0 12.0 0.00 0.00 0.00 80 1010.8
20260510053732 63 316 5.0 13.0 0.00 0.00 0.00 80 1010.8
20260510053631 63 330 8.0 13.0 0.00 0.00 0.00 80 1010.8
20260510053549 63 332 8.0 13.0 0.00 0.00 0.00 80 1010.8
20260510053426 63 318 5.0 13.0 0.00 0.00 0.00 80 1010.8
20260510053324 63 328 9.0 13.0 0.00 0.00 0.00 80 1010.8
20260510053226 63 316 6.0 13.0 0.00 0.00 0.00 80 1010.8
20260510053156 63 330 6.0 13.0 0.00 0.00 0.00 80 1010.8
20260510053033 63 271 7.0 13.0 0.00 0.00 0.00 80 1010.8
20260510052933 63 318 8.0 13.0 0.00 0.00 0.00 80 1010.8
20260510052832 63 330 7.0 13.0 0.00 0.00 0.00 80 1010.7
20260510052730 63 330 9.0 13.0 0.00 0.00 0.00 80 1010.7
20260510052648 63 332 8.0 13.0 0.00 0.00 0.00 80 1010.7
20260510052608 63 337 6.0 13.0 0.00 0.00 0.00 80 1010.7
20260510052505 63 316 5.0 8.0 0.00 0.00 0.00 80 1010.7
20260510052407 63 299 4.0 8.0 0.00 0.00 0.00 80 1010.7
20260510052306 63 330 4.0 9.0 0.00 0.00 0.00 80 1010.7
20260510052142 63 330 6.0 9.0 0.00 0.00 0.00 80 1010.7
20260510052039 63 330 6.0 10.0 0.00 0.00 0.00 80 1010.7
20260510051957 63 330 4.0 12.0 0.00 0.00 0.00 79 1010.7
20260510051854 63 332 4.0 12.0 0.00 0.00 0.00 80 1010.7
20260510051752 63 332 3.0 12.0 0.00 0.00 0.00 80 1010.7
20260510051701 63 329 5.0 12.0 0.00 0.00 0.00 80 1010.7
20260510051538 63 330 4.0 12.0 0.00 0.00 0.00 79 1010.7
20260510051434 63 329 5.0 12.0 0.00 0.00 0.00 79 1010.7
20260510051338 63 332 5.0 12.0 0.00 0.00 0.00 79 1010.7
20260510051236 63 330 7.0 12.0 0.00 0.00 0.00 79 1010.7
20260510051155 63 302 8.0 12.0 0.00 0.00 0.00 79 1010.7
20260510051031 63 328 6.0 12.0 0.00 0.00 0.00 79 1010.7
20260510050953 63 332 6.0 12.0 0.00 0.00 0.00 79 1010.7
20260510050831 63 322 8.0 12.0 0.00 0.00 0.00 79 1010.7
20260510050729 63 329 6.0 12.0 0.00 0.00 0.00 79 1010.7
20260510050629 63 326 9.0 12.0 0.00 0.00 0.00 79 1010.7
20260510050531 63 330 8.0 12.0 0.00 0.00 0.00 79 1010.7
20260510050431 63 328 6.0 12.0 0.00 0.00 0.00 79 1010.7
20260510050330 63 320 9.0 12.0 0.00 0.00 0.00 79 1010.7
20260510050239 63 302 6.0 11.0 0.00 0.00 0.00 79 1010.7
20260510050151 63 313 7.0 11.0 0.00 0.00 0.00 79 1010.7
20260510050028 63 330 7.0 11.0 0.00 0.00 0.00 79 1010.7
20260510045925 63 330 6.0 11.0 0.00 0.00 0.00 79 1010.7
20260510045829 63 337 6.0 11.0 0.00 0.00 0.00 79 1011.6
20260510045727 64 328 4.0 11.0 0.00 0.00 0.00 79 1011.6
20260510045646 64 309 5.0 11.0 0.00 0.00 0.00 79 1011.6
20260510045605 64 316 4.0 13.0 0.00 0.00 0.00 79 1011.6
20260510045502 64 329 6.0 13.0 0.00 0.00 0.00 79 1011.6
20260510045339 64 289 7.0 13.0 0.00 0.00 0.00 79 1011.6
20260510045258 64 330 5.0 13.0 0.00 0.00 0.00 79 1011.6
20260510045134 64 330 6.0 13.0 0.00 0.00 0.00 79 1011.6
20260510045032 64 326 8.0 13.0 0.00 0.00 0.00 79 1011.6
20260510044955 64 330 5.0 13.0 0.00 0.00 0.00 79 1011.6
20260510044833 64 302 5.0 13.0 0.00 0.00 0.00 79 1011.6
20260510044733 64 332 8.0 13.0 0.00 0.00 0.00 80 1011.6
20260510044703 64 326 7.0 13.0 0.00 0.00 0.00 80 1011.6
20260510044601 64 328 6.0 12.0 0.00 0.00 0.00 80 1011.6
20260510044439 64 326 5.0 13.0 0.00 0.00 0.00 80 1011.6
20260510044342 64 329 8.0 13.0 0.00 0.00 0.00 80 1011.7
20260510044240 64 323 7.0 13.0 0.00 0.00 0.00 80 1011.7
20260510044142 64 329 7.0 13.0 0.00 0.00 0.00 80 1011.7
20260510044041 64 329 7.0 13.0 0.00 0.00 0.00 80 1011.7
20260510043939 64 330 9.0 13.0 0.00 0.00 0.00 80 1011.7
20260510043835 64 325 6.0 13.0 0.00 0.00 0.00 80 1011.7
20260510043734 64 326 11.0 13.0 0.00 0.00 0.00 80 1011.7
20260510043653 64 323 7.0 13.0 0.00 0.00 0.00 80 1011.7
20260510043530 64 280 7.0 13.0 0.00 0.00 0.00 80 1011.7
20260510043431 64 329 7.0 12.0 0.00 0.00 0.00 80 1011.7
20260510043330 64 280 3.0 12.0 0.00 0.00 0.00 80 1011.7
20260510043239 64 335 4.0 12.0 0.00 0.00 0.00 80 1011.7
20260510043148 64 295 6.0 12.0 0.00 0.00 0.00 80 1011.7
20260510043025 64 311 9.0 12.0 0.00 0.00 0.00 80 1011.7
20260510042943 64 326 7.0 12.0 0.00 0.00 0.00 80 1011.7
20260510042841 64 328 7.0 12.0 0.00 0.00 0.00 80 1010.9
20260510042800 64 330 8.0 12.0 0.00 0.00 0.00 80 1010.9
20260510042657 64 319 8.0 12.0 0.00 0.00 0.00 80 1010.9
20260510042559 64 329 6.0 12.0 0.00 0.00 0.00 80 1010.9
20260510042456 64 329 6.0 12.0 0.00 0.00 0.00 80 1010.9
20260510042334 64 329 8.0 12.0 0.00 0.00 0.00 80 1010.9
20260510042232 64 305 6.0 12.0 0.00 0.00 0.00 80 1010.9
20260510042130 64 330 5.0 12.0 0.00 0.00 0.00 80 1010.9
20260510042029 64 330 6.0 12.0 0.00 0.00 0.00 80 1010.9
20260510041928 64 316 6.0 12.0 0.00 0.00 0.00 80 1010.9
20260510041847 64 330 5.0 12.0 0.00 0.00 0.00 80 1010.9
20260510041728 64 329 9.0 12.0 0.00 0.00 0.00 80 1010.9
20260510041657 64 289 7.0 12.0 0.00 0.00 0.00 80 1010.9
20260510041534 64 318 8.0 12.0 0.00 0.00 0.00 80 1010.9
20260510041433 64 312 8.0 12.0 0.00 0.00 0.00 80 1010.9
20260510041351 64 330 7.0 16.0 0.00 0.00 0.00 80 1010.9
20260510041228 64 295 6.0 16.0 0.00 0.00 0.00 80 1010.9
20260510041146 64 330 6.0 16.0 0.00 0.00 0.00 80 1010.9
20260510041103 64 330 7.0 16.0 0.00 0.00 0.00 80 1010.9
20260510040945 64 322 6.0 16.0 0.00 0.00 0.00 80 1010.9
20260510040902 64 330 5.0 16.0 0.00 0.00 0.00 80 1010.9
20260510040759 64 329 4.0 16.0 0.00 0.00 0.00 80 1010.9
20260510040637 64 329 6.0 16.0 0.00 0.00 0.00 80 1010.9
20260510040535 64 330 10.0 16.0 0.00 0.00 0.00 80 1010.9
20260510040453 64 335 7.0 13.0 0.00 0.00 0.00 80 1010.9
20260510040330 64 306 8.0 13.0 0.00 0.00 0.00 80 1010.9
20260510040239 64 323 9.0 13.0 0.00 0.00 0.00 80 1010.9
20260510040149 64 288 8.0 13.0 0.00 0.00 0.00 80 1010.9
20260510040045 64 330 8.0 13.0 0.00 0.00 0.00 81 1010.9
20260510035926 64 332 9.0 13.0 0.00 0.00 0.00 81 1010.9
20260510035827 64 322 8.0 13.0 0.00 0.00 0.00 81 1010.9
20260510035726 64 330 7.0 13.0 0.00 0.00 0.00 81 1010.9
20260510035644 64 322 6.0 13.0 0.00 0.00 0.00 81 1010.9
20260510035606 64 330 9.0 13.0 0.00 0.00 0.00 81 1010.9
20260510035504 64 330 8.0 13.0 0.00 0.00 0.00 81 1010.9
20260510035342 64 330 7.0 13.0 0.00 0.00 0.00 81 1010.9
20260510035224 64 277 7.0 13.0 0.00 0.00 0.00 81 1010.9
20260510035142 64 322 6.0 13.0 0.00 0.00 0.00 81 1010.9
20260510035041 64 330 6.0 13.0 0.00 0.00 0.00 81 1010.9
20260510034959 64 329 8.0 13.0 0.00 0.00 0.00 81 1010.9
20260510034837 64 329 8.0 13.0 0.00 0.00 0.00 81 1010.9
20260510034736 64 325 8.0 11.0 0.00 0.00 0.00 81 1010.9
20260510034705 64 330 7.0 11.0 0.00 0.00 0.00 81 1010.9
20260510034542 64 322 6.0 14.0 0.00 0.00 0.00 81 1010.9
20260510034424 64 232 5.0 14.0 0.00 0.00 0.00 81 1010.9
20260510034343 64 329 6.0 14.0 0.00 0.00 0.00 81 1011.0
20260510034241 64 332 5.0 14.0 0.00 0.00 0.00 81 1011.0
20260510034141 64 329 6.0 14.0 0.00 0.00 0.00 81 1011.0
20260510034058 64 329 5.0 14.0 0.00 0.00 0.00 81 1011.0
20260510033937 64 332 8.0 14.0 0.00 0.00 0.00 81 1011.0
20260510033836 64 330 7.0 14.0 0.00 0.00 0.00 81 1011.0
20260510033738 64 332 9.0 14.0 0.00 0.00 0.00 81 1011.0
20260510033636 64 330 7.0 13.0 0.00 0.00 0.00 81 1011.0
20260510033536 64 319 7.0 13.0 0.00 0.00 0.00 81 1011.0
20260510033434 64 272 6.0 13.0 0.00 0.00 0.00 81 1011.0
20260510033333 64 326 7.0 13.0 0.00 0.00 0.00 81 1011.0
20260510033232 64 318 11.0 13.0 0.00 0.00 0.00 81 1011.0
20260510033203 64 332 8.0 13.0 0.00 0.00 0.00 81 1011.0
20260510033043 64 332 6.0 13.0 0.00 0.00 0.00 81 1011.0
20260510032941 64 330 6.0 13.0 0.00 0.00 0.00 81 1011.0
20260510032840 64 330 7.0 13.0 0.00 0.00 0.00 81 1010.9
20260510032738 64 332 7.0 13.0 0.00 0.00 0.00 81 1010.9
20260510032637 64 305 8.0 13.0 0.00 0.00 0.00 81 1010.9
20260510032536 64 263 8.0 13.0 0.00 0.00 0.00 81 1010.9
20260510032435 64 322 7.0 13.0 0.00 0.00 0.00 81 1010.9
20260510032337 64 328 5.0 13.0 0.00 0.00 0.00 81 1010.9
20260510032235 64 330 7.0 13.0 0.00 0.00 0.00 81 1010.9
20260510032133 64 329 8.0 13.0 0.00 0.00 0.00 81 1010.9
20260510032052 64 332 6.0 13.0 0.00 0.00 0.00 81 1010.9
20260510031929 64 319 8.0 13.0 0.00 0.00 0.00 81 1010.9
20260510031828 64 332 9.0 13.0 0.00 0.00 0.00 81 1010.9
20260510031727 64 329 7.0 12.0 0.00 0.00 0.00 81 1010.9
20260510031701 64 330 9.0 12.0 0.00 0.00 0.00 81 1010.9
20260510031539 64 260 9.0 12.0 0.00 0.00 0.00 81 1010.9
20260510031438 64 328 6.0 12.0 0.00 0.00 0.00 81 1010.9
20260510031336 64 302 6.0 12.0 0.00 0.00 0.00 81 1011.2
20260510031234 64 330 7.0 12.0 0.00 0.00 0.00 81 1011.2
20260510031153 64 320 8.0 13.0 0.00 0.00 0.00 81 1011.2
20260510031031 64 304 6.0 13.0 0.00 0.00 0.00 81 1011.2
20260510030932 64 337 5.0 13.0 0.00 0.00 0.00 81 1011.2
20260510030830 64 332 7.0 13.0 0.00 0.00 0.00 81 1011.2
20260510030729 64 329 7.0 13.0 0.00 0.00 0.00 81 1011.2
20260510030627 64 325 5.0 13.0 0.00 0.00 0.00 81 1011.2
20260510030526 64 325 5.0 13.0 0.00 0.00 0.00 81 1011.2
20260510030424 64 322 4.0 13.0 0.00 0.00 0.00 81 1011.2
20260510030343 64 302 5.0 13.0 0.00 0.00 0.00 81 1011.2
20260510030226 64 270 7.0 13.0 0.00 0.00 0.00 81 1011.2
20260510030201 64 332 6.0 13.0 0.00 0.00 0.00 81 1011.2
20260510030041 64 316 6.0 13.0 0.00 0.00 0.00 81 1011.2
20260510025939 64 299 5.0 13.0 0.00 0.00 0.00 81 1011.2
20260510025838 64 192 5.0 13.0 0.00 0.00 0.00 81 1010.9
20260510025737 64 328 6.0 13.0 0.00 0.00 0.00 81 1010.9
20260510025636 64 277 4.0 12.0 0.00 0.00 0.00 81 1010.9
20260510025558 65 226 5.0 12.0 0.00 0.00 0.00 81 1010.9
20260510025435 65 322 7.0 12.0 0.00 0.00 0.00 81 1010.9
20260510025354 65 275 7.0 12.0 0.00 0.00 0.00 81 1010.9
20260510025233 65 311 6.0 11.0 0.00 0.00 0.00 81 1010.9
20260510025152 65 328 6.0 11.0 0.00 0.00 0.00 81 1010.9
20260510025029 65 315 5.0 11.0 0.00 0.00 0.00 81 1010.9
20260510024926 65 292 7.0 11.0 0.00 0.00 0.00 81 1010.9
20260510024826 65 295 6.0 10.0 0.00 0.00 0.00 81 1010.9
20260510024729 65 277 7.0 10.0 0.00 0.00 0.00 81 1010.9
20260510024658 65 244 5.0 10.0 0.00 0.00 0.00 81 1010.9
20260510024556 65 268 5.0 10.0 0.00 0.00 0.00 81 1010.9
20260510024435 65 247 5.0 10.0 0.00 0.00 0.00 81 1010.9
20260510024333 65 280 6.0 11.0 0.00 0.00 0.00 81 1010.6
20260510024231 65 232 5.0 11.0 0.00 0.00 0.00 81 1010.6
20260510024132 65 274 5.0 11.0 0.00 0.00 0.00 81 1010.6
20260510024031 65 284 5.0 11.0 0.00 0.00 0.00 81 1010.6
20260510023933 65 254 3.0 11.0 0.00 0.00 0.00 81 1010.6
20260510023832 65 318 4.0 11.0 0.00 0.00 0.00 80 1010.6
20260510023729 65 265 3.0 11.0 0.00 0.00 0.00 80 1010.6
20260510023648 65 291 4.0 11.0 0.00 0.00 0.00 80 1010.6
20260510023545 65 288 7.0 11.0 0.00 0.00 0.00 80 1010.6
20260510023443 65 298 6.0 11.0 0.00 0.00 0.00 80 1010.6
20260510023341 65 232 5.0 10.0 0.00 0.00 0.00 80 1010.6
20260510023225 65 227 6.0 10.0 0.00 0.00 0.00 80 1010.6
20260510023156 65 292 5.0 8.0 0.00 0.00 0.00 80 1010.6
20260510023032 65 289 5.0 8.0 0.00 0.00 0.00 80 1010.6
20260510022951 65 234 4.0 8.0 0.00 0.00 0.00 80 1010.6
20260510022829 65 223 5.0 8.0 0.00 0.00 0.00 80 1010.4
20260510022728 65 191 5.0 10.0 0.00 0.00 0.00 80 1010.4
20260510022627 65 243 5.0 10.0 0.00 0.00 0.00 80 1010.4
20260510022527 65 288 4.0 10.0 0.00 0.00 0.00 80 1010.4
20260510022429 65 227 3.0 10.0 0.00 0.00 0.00 80 1010.4
20260510022327 65 232 5.0 10.0 0.00 0.00 0.00 80 1010.4
20260510022246 65 220 6.0 10.0 0.00 0.00 0.00 80 1010.4
20260510022204 65 205 5.0 10.0 0.00 0.00 0.00 80 1010.4
20260510022041 65 251 4.0 10.0 0.00 0.00 0.00 80 1010.4
20260510021940 65 178 6.0 10.0 0.00 0.00 0.00 80 1010.4
20260510021841 65 233 5.0 7.0 0.00 0.00 0.00 80 1010.4
20260510021725 65 184 5.0 7.0 0.00 0.00 0.00 80 1010.4
20260510021654 65 216 5.0 7.0 0.00 0.00 0.00 80 1010.4
20260510021533 65 188 4.0 7.0 0.00 0.00 0.00 80 1010.4
20260510021452 65 189 4.0 7.0 0.00 0.00 0.00 80 1010.4
20260510021329 65 176 4.0 7.0 0.00 0.00 0.00 80 1010.3
20260510021228 65 224 4.0 7.0 0.00 0.00 0.00 80 1010.3
20260510021127 65 208 3.0 7.0 0.00 0.00 0.00 80 1010.3
20260510021029 65 171 4.0 7.0 0.00 0.00 0.00 80 1010.3
20260510020952 65 220 5.0 7.0 0.00 0.00 0.00 80 1010.3
20260510020849 65 193 6.0 7.0 0.00 0.00 0.00 79 1010.3
20260510020747 65 199 4.0 7.0 0.00 0.00 0.00 79 1010.3
20260510020624 65 292 3.0 7.0 0.00 0.00 0.00 79 1010.3
20260510020524 65 171 4.0 7.0 0.00 0.00 0.00 79 1010.3
20260510020427 65 165 5.0 7.0 0.00 0.00 0.00 79 1010.3
20260510020326 65 164 5.0 7.0 0.00 0.00 0.00 79 1010.3
20260510020240 65 213 4.0 7.0 0.00 0.00 0.00 79 1010.3
20260510020150 65 226 5.0 7.0 0.00 0.00 0.00 79 1010.3
20260510020027 65 144 5.0 7.0 0.00 0.00 0.00 79 1010.3
20260510015926 65 168 3.0 7.0 0.00 0.00 0.00 79 1010.3
20260510015845 65 200 4.0 7.0 0.00 0.00 0.00 79 1010.1
20260510015804 65 191 4.0 7.0 0.00 0.00 0.00 79 1010.1
20260510015640 65 285 3.0 7.0 0.00 0.00 0.00 79 1010.1
20260510015538 65 319 3.0 8.0 0.00 0.00 0.00 79 1010.1
20260510015436 65 219 3.0 8.0 0.00 0.00 0.00 79 1010.1
20260510015339 65 178 3.0 8.0 0.00 0.00 0.00 79 1010.1
20260510015238 65 155 5.0 8.0 0.00 0.00 0.00 79 1010.1
20260510015136 65 165 4.0 8.0 0.00 0.00 0.00 79 1010.1
20260510015035 65 155 3.0 8.0 0.00 0.00 0.00 79 1010.1
20260510014934 65 161 3.0 8.0 0.00 0.00 0.00 79 1010.1
20260510014852 65 210 4.0 8.0 0.00 0.00 0.00 79 1010.1
20260510014749 65 313 6.0 8.0 0.00 0.00 0.00 79 1010.1
20260510014719 65 172 6.0 8.0 0.00 0.00 0.00 79 1010.1
20260510014540 65 278 5.0 7.0 0.00 0.00 0.00 79 1010.1
20260510014458 65 150 5.0 8.0 0.00 0.00 0.00 78 1010.1
20260510014335 65 248 4.0 8.0 0.00 0.00 0.00 78 1009.9
20260510014234 65 320 6.0 8.0 0.00 0.00 0.00 78 1009.9
20260510014132 65 241 5.0 8.0 0.00 0.00 0.00 79 1009.9
20260510014030 65 185 5.0 8.0 0.00 0.00 0.00 78 1009.9
20260510013930 65 174 4.0 8.0 0.00 0.00 0.00 79 1009.9
20260510013852 65 165 4.0 8.0 0.00 0.00 0.00 78 1009.9
20260510013730 65 217 4.0 8.0 0.00 0.00 0.00 78 1009.9
20260510013628 65 230 5.0 8.0 0.00 0.00 0.00 78 1009.9
20260510013531 65 143 5.0 8.0 0.00 0.00 0.00 78 1009.9
20260510013429 65 175 6.0 8.0 0.00 0.00 0.00 78 1009.9
20260510013328 65 169 6.0 8.0 0.00 0.00 0.00 78 1009.9
20260510013238 65 232 2.0 8.0 0.00 0.00 0.00 78 1009.9
20260510013152 65 268 2.0 10.0 0.00 0.00 0.00 78 1009.9
20260510013029 65 313 3.0 10.0 0.00 0.00 0.00 78 1009.9
20260510012932 65 188 4.0 10.0 0.00 0.00 0.00 78 1009.9
20260510012831 65 188 3.0 10.0 0.00 0.00 0.00 78 1009.7
20260510012729 65 329 4.0 10.0 0.00 0.00 0.00 78 1009.7
20260510012628 65 161 4.0 10.0 0.00 0.00 0.00 78 1009.7
20260510012527 65 222 5.0 10.0 0.00 0.00 0.00 78 1009.7
20260510012429 65 224 5.0 10.0 0.00 0.00 0.00 78 1009.7
20260510012327 66 167 7.0 10.0 0.00 0.00 0.00 78 1009.7
20260510012226 66 316 5.0 9.0 0.00 0.00 0.00 78 1009.7
20260510012124 66 254 4.0 9.0 0.00 0.00 0.00 78 1009.7
20260510012043 66 253 4.0 9.0 0.00 0.00 0.00 77 1009.7
20260510011921 66 268 4.0 9.0 0.00 0.00 0.00 78 1009.7
20260510011827 66 172 4.0 9.0 0.00 0.00 0.00 77 1009.7
20260510011727 66 240 7.0 9.0 0.00 0.00 0.00 77 1009.7
20260510011655 66 287 5.0 8.0 0.00 0.00 0.00 77 1009.7
20260510011532 66 232 5.0 8.0 0.00 0.00 0.00 77 1009.7
20260510011431 66 186 5.0 8.0 0.00 0.00 0.00 77 1009.7
20260510011329 66 202 5.0 8.0 0.00 0.00 0.00 77 1009.6
20260510011227 66 116 4.0 8.0 0.00 0.00 0.00 77 1009.6
20260510011125 66 137 4.0 8.0 0.00 0.00 0.00 77 1009.6
20260510011028 66 328 4.0 8.0 0.00 0.00 0.00 77 1009.6
20260510010947 66 258 6.0 8.0 0.00 0.00 0.00 77 1009.6
20260510010843 66 195 4.0 7.0 0.00 0.00 0.00 76 1009.6
20260510010741 66 154 5.0 7.0 0.00 0.00 0.00 76 1009.6
20260510010640 66 206 4.0 7.0 0.00 0.00 0.00 76 1009.6
20260510010537 66 227 3.0 7.0 0.00 0.00 0.00 76 1009.6
20260510010435 66 188 4.0 7.0 0.00 0.00 0.00 76 1009.6
20260510010337 66 171 4.0 7.0 0.00 0.00 0.00 76 1009.6
20260510010236 66 165 5.0 7.0 0.00 0.00 0.00 76 1009.6
20260510010204 66 319 6.0 7.0 0.00 0.00 0.00 76 1009.6
20260510010041 66 323 5.0 7.0 0.00 0.00 0.00 76 1009.6
20260510010003 66 171 4.0 7.0 0.00 0.00 0.00 76 1009.6
20260510005839 66 168 5.0 7.0 0.00 0.00 0.00 76 1009.4
20260510005737 66 332 6.0 7.0 0.00 0.00 0.00 75 1009.4
20260510005636 66 239 5.0 7.0 0.00 0.00 0.00 75 1009.4
20260510005600 66 291 4.0 7.0 0.00 0.00 0.00 75 1009.4
20260510005438 66 306 4.0 7.0 0.00 0.00 0.00 75 1009.4
20260510005335 66 161 4.0 7.0 0.00 0.00 0.00 75 1009.4
20260510005233 66 277 5.0 7.0 0.00 0.00 0.00 75 1009.4
20260510005132 66 329 5.0 7.0 0.00 0.00 0.00 75 1009.4
20260510005031 66 311 4.0 6.0 0.00 0.00 0.00 74 1009.4
20260510004929 66 271 3.0 6.0 0.00 0.00 0.00 74 1009.4
20260510004830 66 326 5.0 6.0 0.00 0.00 0.00 74 1009.4
20260510004739 66 312 3.0 6.0 0.00 0.00 0.00 74 1009.4
20260510004648 66 193 2.0 6.0 0.00 0.00 0.00 74 1009.4
20260510004547 66 284 3.0 6.0 0.00 0.00 0.00 75 1009.4
20260510004502 66 178 3.0 6.0 0.00 0.00 0.00 74 1009.4
20260510004341 66 313 3.0 6.0 0.00 0.00 0.00 74 1008.9
20260510004239 66 329 3.0 6.0 0.00 0.00 0.00 74 1008.9
20260510004124 66 330 3.0 6.0 0.00 0.00 0.00 74 1008.9
20260510004043 66 328 2.0 6.0 0.00 0.00 0.00 74 1008.9
20260510003941 66 320 4.0 6.0 0.00 0.00 0.00 74 1008.9
20260510003859 66 333 5.0 6.0 0.00 0.00 0.00 74 1008.9
20260510003758 66 332 4.0 6.0 0.00 0.00 0.00 74 1008.9
20260510003636 67 305 3.0 6.0 0.00 0.00 0.00 74 1008.9
20260510003534 67 287 4.0 6.0 0.00 0.00 0.00 74 1008.9
20260510003433 67 328 4.0 6.0 0.00 0.00 0.00 74 1008.9
20260510003336 67 328 3.0 5.0 0.00 0.00 0.00 74 1008.9
20260510003234 67 330 3.0 5.0 0.00 0.00 0.00 74 1008.9
20260510003204 67 316 4.0 5.0 0.00 0.00 0.00 74 1008.9
20260510003101 67 254 4.0 5.0 0.00 0.00 0.00 73 1008.9
20260510002938 67 323 2.0 3.0 0.00 0.00 0.00 73 1008.9
20260510002836 67 309 2.0 3.0 0.00 0.00 0.00 73 1008.9
20260510002736 67 309 2.0 3.0 0.00 0.00 0.00 72 1008.9
20260510002635 67 312 2.0 3.0 0.00 0.00 0.00 72 1008.9
20260510002537 67 315 3.0 3.0 0.00 0.00 0.00 72 1008.9
20260510002436 67 323 2.0 3.0 0.00 0.00 0.00 72 1008.9
20260510002335 67 322 1.0 3.0 0.00 0.00 0.00 71 1008.9
20260510002255 67 318 1.0 3.0 0.00 0.00 0.00 71 1008.9
20260510002152 67 316 1.0 3.0 0.00 0.00 0.00 72 1008.9
20260510002030 67 325 2.0 3.0 0.00 0.00 0.00 72 1008.9
20260510001928 67 320 2.0 3.0 0.00 0.00 0.00 72 1008.9
20260510001826 67 320 1.0 3.0 0.00 0.00 0.00 72 1008.9
20260510001739 67 326 2.0 2.0 0.00 0.00 0.00 72 1008.9
20260510001647 67 320 1.0 2.0 0.00 0.00 0.00 71 1008.9
20260510001525 67 326 2.0 2.0 0.00 0.00 0.00 71 1008.9
20260510001443 68 326 2.0 2.0 0.00 0.00 0.00 71 1008.9
20260510001342 68 316 1.0 2.0 0.00 0.00 0.00 71 1008.8
20260510001241 68 329 1.0 2.0 0.00 0.00 0.00 71 1008.8
20260510001159 68 320 0.0 2.0 0.00 0.00 0.00 71 1008.8
20260510001036 68 319 0.0 2.0 0.00 0.00 0.00 71 1008.8
20260510000939 68 319 0.0 2.0 0.00 0.00 0.00 71 1008.8
20260510000837 68 320 0.0 2.0 0.00 0.00 0.00 71 1008.8
20260510000754 68 319 0.0 2.0 0.00 0.00 0.00 69 1008.8
20260510000633 68 319 0.0 2.0 0.00 0.00 0.00 69 1008.8
20260510000551 68 320 0.0 2.0 0.00 0.00 0.00 68 1008.8
20260510000429 68 320 0.0 2.0 0.00 0.00 0.00 68 1008.8
20260510000328 68 319 0.0 2.0 0.00 0.00 0.00 68 1008.8
20260510000242 68 318 0.0 2.0 0.00 0.00 0.00 68 1008.8
20260510000151 68 323 0.0 1.0 0.00 0.00 0.00 68 1008.8
20260510000027 68 323 0.0 1.0 0.00 0.00 0.00 68 1008.8
20260509235926 68 323 0.0 1.0 0.00 0.00 0.00 68 1008.8
20260509235824 68 323 0.0 1.0 0.00 0.00 0.00 68 1008.7
20260509235721 68 325 0.0 1.0 0.00 0.00 0.00 67 1008.7
20260509235643 68 325 0.0 1.0 0.00 0.00 0.00 67 1008.7
20260509235526 68 325 0.0 0.0 0.00 0.00 0.00 67 1008.7
20260509235445 68 322 0.0 0.0 0.00 0.00 0.00 67 1008.7
20260509235403 68 325 0.0 0.0 0.00 0.00 0.00 68 1008.7
20260509235240 68 323 0.0 0.0 0.00 0.00 0.00 68 1008.7
20260509235159 68 322 0.0 0.0 0.00 0.00 0.00 68 1008.7
20260509235036 68 323 0.0 0.0 0.00 0.00 0.00 67 1008.7
20260509234933 68 322 0.0 0.0 0.00 0.00 0.00 68 1008.7
20260509234832 68 323 0.0 2.0 0.00 0.00 0.00 68 1008.7
20260509234735 68 322 0.0 2.0 0.00 0.00 0.00 69 1008.7
20260509234702 68 322 0.0 2.0 0.00 0.00 0.00 69 1008.7
20260509234539 68 323 0.0 2.0 0.00 0.00 0.00 69 1008.7
20260509234437 68 323 0.0 2.0 0.00 0.00 0.00 69 1008.7
20260509234336 68 322 0.0 2.0 0.00 0.00 0.00 69 1008.5
20260509234235 68 322 0.0 2.0 0.00 0.00 0.00 69 1008.5
20260509234153 68 323 0.0 2.0 0.00 0.00 0.00 69 1008.5
20260509234029 68 323 1.0 2.0 0.00 0.00 0.00 69 1008.5
20260509233932 68 322 1.0 3.0 0.00 0.00 0.00 69 1008.5
20260509233851 68 322 2.0 3.0 0.00 0.00 0.00 69 1008.5
20260509233728 68 322 2.0 3.0 0.00 0.00 0.00 69 1008.5
20260509233626 68 325 1.0 3.0 0.00 0.00 0.00 69 1008.5
20260509233544 68 320 1.0 3.0 0.00 0.00 0.00 69 1008.5
20260509233442 68 322 2.0 3.0 0.00 0.00 0.00 68 1008.5
20260509233341 68 323 2.0 3.0 0.00 0.00 0.00 69 1008.5
20260509233224 68 323 2.0 3.0 0.00 0.00 0.00 69 1008.5
20260509233156 68 326 1.0 3.0 0.00 0.00 0.00 69 1008.5
20260509233035 69 326 1.0 3.0 0.00 0.00 0.00 68 1008.5
20260509232933 69 328 2.0 3.0 0.00 0.00 0.00 68 1008.5
20260509232832 69 323 1.0 2.0 0.00 0.00 0.00 68 1008.7
20260509232730 69 322 1.0 2.0 0.00 0.00 0.00 68 1008.7
20260509232629 69 322 1.0 2.0 0.00 0.00 0.00 68 1008.7
20260509232531 69 323 1.0 2.0 0.00 0.00 0.00 68 1008.7
20260509232430 69 323 0.0 2.0 0.00 0.00 0.00 68 1008.7
20260509232330 69 325 1.0 2.0 0.00 0.00 0.00 68 1008.7
20260509232231 69 325 1.0 2.0 0.00 0.00 0.00 68 1008.7
20260509232130 69 323 0.0 2.0 0.00 0.00 0.00 69 1008.7
20260509232028 69 325 0.0 3.0 0.00 0.00 0.00 69 1008.7
20260509231927 69 326 1.0 3.0 0.00 0.00 0.00 69 1008.7
20260509231830 69 325 1.0 3.0 0.00 0.00 0.00 69 1008.7
20260509231740 69 322 0.0 3.0 0.00 0.00 0.00 69 1008.7
20260509231649 69 323 0.0 3.0 0.00 0.00 0.00 69 1008.7
20260509231547 69 323 0.0 3.0 0.00 0.00 0.00 69 1008.7
20260509231426 69 325 0.0 5.0 0.00 0.00 0.00 68 1008.7
20260509231327 69 325 1.0 5.0 0.00 0.00 0.00 68 1008.4
20260509231225 69 329 2.0 5.0 0.00 0.00 0.00 68 1008.4
20260509231128 69 325 0.0 5.0 0.00 0.00 0.00 68 1008.4
20260509231046 69 328 1.0 5.0 0.00 0.00 0.00 68 1008.4
20260509230924 69 323 1.0 5.0 0.00 0.00 0.00 68 1008.4
20260509230826 69 323 1.0 5.0 0.00 0.00 0.00 68 1008.4
20260509230724 69 328 1.0 5.0 0.00 0.00 0.00 68 1008.4
20260509230643 69 326 2.0 5.0 0.00 0.00 0.00 68 1008.4
20260509230600 69 328 3.0 5.0 0.00 0.00 0.00 68 1008.4
20260509230439 69 328 1.0 5.0 0.00 0.00 0.00 68 1008.4
20260509230324 69 328 2.0 3.0 0.00 0.00 0.00 68 1008.4
20260509230243 69 323 2.0 3.0 0.00 0.00 0.00 68 1008.4
20260509230215 69 328 1.0 3.0 0.00 0.00 0.00 68 1008.4
20260509230030 69 320 1.0 3.0 0.00 0.00 0.00 68 1008.4
20260509225929 69 328 2.0 3.0 0.00 0.00 0.00 68 1008.4
20260509225827 69 330 1.0 3.0 0.00 0.00 0.00 68 1008.3
20260509225726 69 326 0.0 2.0 0.00 0.00 0.00 68 1008.3
20260509225629 69 325 1.0 2.0 0.00 0.00 0.00 68 1008.3
20260509225529 69 322 0.0 2.0 0.00 0.00 0.00 68 1008.3
20260509225428 69 323 0.0 2.0 0.00 0.00 0.00 68 1008.3
20260509225327 69 323 0.0 3.0 0.00 0.00 0.00 68 1008.3
20260509225245 69 323 0.0 3.0 0.00 0.00 0.00 68 1008.3
20260509225204 69 320 1.0 3.0 0.00 0.00 0.00 68 1008.3
20260509225042 69 322 1.0 3.0 0.00 0.00 0.00 68 1008.3
20260509224924 69 322 0.0 5.0 0.00 0.00 0.00 68 1008.3
20260509224842 69 325 0.0 5.0 0.00 0.00 0.00 67 1008.3
20260509224740 69 323 1.0 5.0 0.00 0.00 0.00 67 1008.3
20260509224714 69 322 1.0 5.0 0.00 0.00 0.00 67 1008.3
20260509224531 69 322 1.0 5.0 0.00 0.00 0.00 67 1008.3
20260509224430 69 322 0.0 5.0 0.00 0.00 0.00 67 1008.3
20260509224328 69 322 1.0 5.0 0.00 0.00 0.00 67 1008.2
20260509224226 69 323 2.0 5.0 0.00 0.00 0.00 67 1008.2
20260509224128 69 323 3.0 5.0 0.00 0.00 0.00 67 1008.2
20260509224027 69 323 2.0 5.0 0.00 0.00 0.00 67 1008.2
20260509223925 69 326 2.0 5.0 0.00 0.00 0.00 66 1008.2
20260509223843 69 326 1.0 5.0 0.00 0.00 0.00 66 1008.2
20260509223741 69 316 3.0 5.0 0.00 0.00 0.00 67 1008.2
20260509223638 69 311 4.0 5.0 0.00 0.00 0.00 67 1008.2
20260509223536 69 322 2.0 5.0 0.00 0.00 0.00 67 1008.2
20260509223459 69 326 1.0 5.0 0.00 0.00 0.00 66 1008.2
20260509223336 69 316 1.0 5.0 0.00 0.00 0.00 67 1008.2
20260509223236 69 328 3.0 5.0 0.00 0.00 0.00 67 1008.2
20260509223207 69 326 3.0 5.0 0.00 0.00 0.00 67 1008.2
20260509223042 69 325 2.0 5.0 0.00 0.00 0.00 67 1008.2
20260509222940 69 318 2.0 5.0 0.00 0.00 0.00 67 1008.2
20260509222839 69 319 2.0 5.0 0.00 0.00 0.00 66 1008.1
20260509222738 69 330 2.0 5.0 0.00 0.00 0.00 66 1008.1
20260509222641 69 326 2.0 5.0 0.00 0.00 0.00 65 1008.1
20260509222539 69 329 3.0 5.0 0.00 0.00 0.00 65 1008.1
20260509222440 69 329 2.0 5.0 0.00 0.00 0.00 65 1008.1
20260509222340 69 322 1.0 5.0 0.00 0.00 0.00 66 1008.1
20260509222238 69 323 2.0 5.0 0.00 0.00 0.00 66 1008.1
20260509222136 69 316 3.0 5.0 0.00 0.00 0.00 66 1008.1
20260509222038 69 330 3.0 5.0 0.00 0.00 0.00 66 1008.1
20260509221937 69 322 1.0 5.0 0.00 0.00 0.00 67 1008.1
20260509221854 69 319 0.0 5.0 0.00 0.00 0.00 67 1008.1
20260509221801 69 320 0.0 5.0 0.00 0.00 0.00 67 1008.1
20260509221648 69 323 1.0 5.0 0.00 0.00 0.00 67 1008.1
20260509221524 69 325 0.0 5.0 0.00 0.00 0.00 67 1008.1
20260509221443 69 320 0.0 5.0 0.00 0.00 0.00 67 1008.1
20260509221340 69 319 0.0 5.0 0.00 0.00 0.00 66 1008.3
20260509221259 69 319 1.0 5.0 0.00 0.00 0.00 67 1008.3
20260509221136 69 320 2.0 5.0 0.00 0.00 0.00 68 1008.3
20260509221039 69 316 2.0 5.0 0.00 0.00 0.00 67 1008.3
20260509220939 69 325 3.0 5.0 0.00 0.00 0.00 67 1008.3
20260509220836 69 323 2.0 3.0 0.00 0.00 0.00 68 1008.3
20260509220735 69 322 1.0 3.0 0.00 0.00 0.00 68 1008.3
20260509220633 69 323 1.0 3.0 0.00 0.00 0.00 68 1008.3
20260509220532 69 318 1.0 3.0 0.00 0.00 0.00 68 1008.3
20260509220434 69 325 0.0 5.0 0.00 0.00 0.00 68 1008.3
20260509220333 69 320 0.0 6.0 0.00 0.00 0.00 68 1008.3
20260509220252 69 315 1.0 6.0 0.00 0.00 0.00 67 1008.3
20260509220202 69 318 1.0 6.0 0.00 0.00 0.00 67 1008.3
20260509220059 69 322 2.0 6.0 0.00 0.00 0.00 67 1008.3
20260509215937 69 325 1.0 6.0 0.00 0.00 0.00 67 1008.3
20260509215835 69 322 1.0 6.0 0.00 0.00 0.00 67 1008.2
20260509215734 69 325 2.0 6.0 0.00 0.00 0.00 69 1008.2
20260509215637 69 316 2.0 6.0 0.00 0.00 0.00 69 1008.2
20260509215536 69 320 3.0 6.0 0.00 0.00 0.00 69 1008.2
20260509215454 69 328 2.0 4.0 0.00 0.00 0.00 68 1008.2
20260509215331 69 326 1.0 5.0 0.00 0.00 0.00 68 1008.2
20260509215251 69 329 2.0 5.0 0.00 0.00 0.00 68 1008.2
20260509215127 69 320 2.0 5.0 0.00 0.00 0.00 68 1008.2
20260509215026 69 328 2.0 5.0 0.00 0.00 0.00 68 1008.2
20260509214928 69 319 3.0 5.0 0.00 0.00 0.00 68 1008.2
20260509214830 69 325 3.0 5.0 0.00 0.00 0.00 68 1008.2
20260509214740 69 323 2.0 6.0 0.00 0.00 0.00 68 1008.2
20260509214649 69 326 1.0 8.0 0.00 0.00 0.00 68 1008.2
20260509214527 69 329 2.0 8.0 0.00 0.00 0.00 68 1008.2
20260509214446 69 326 3.0 8.0 0.00 0.00 0.00 68 1008.2
20260509214343 69 329 2.0 8.0 0.00 0.00 0.00 68 1008.0
20260509214242 69 329 2.0 8.0 0.00 0.00 0.00 68 1008.0
20260509214124 69 323 2.0 8.0 0.00 0.00 0.00 67 1008.0
20260509214044 69 318 2.0 8.0 0.00 0.00 0.00 67 1008.0
20260509213942 69 322 3.0 8.0 0.00 0.00 0.00 68 1008.0
20260509213838 69 323 6.0 8.0 0.00 0.00 0.00 68 1008.0
20260509213737 69 322 5.0 8.0 0.00 0.00 0.00 68 1008.0
20260509213636 69 322 6.0 8.0 0.00 0.00 0.00 68 1008.0
20260509213533 69 325 3.0 8.0 0.00 0.00 0.00 68 1008.0
20260509213432 69 322 6.0 7.0 0.00 0.00 0.00 68 1008.0
20260509213355 69 337 4.0 7.0 0.00 0.00 0.00 68 1008.0
20260509213244 69 322 2.0 7.0 0.00 0.00 0.00 68 1008.0
20260509213154 69 335 2.0 7.0 0.00 0.00 0.00 68 1008.0
20260509213051 69 337 4.0 7.0 0.00 0.00 0.00 68 1008.0
20260509212949 69 330 3.0 7.0 0.00 0.00 0.00 67 1008.0
20260509212845 69 336 4.0 7.0 0.00 0.00 0.00 67 1008.1
20260509212743 69 336 5.0 7.0 0.00 0.00 0.00 67 1008.1
20260509212641 69 335 6.0 7.0 0.00 0.00 0.00 68 1008.1
20260509212541 69 328 2.0 6.0 0.00 0.00 0.00 69 1008.1
20260509212443 69 333 1.0 5.0 0.00 0.00 0.00 69 1008.1
20260509212402 69 328 1.0 5.0 0.00 0.00 0.00 69 1008.1
20260509212240 69 329 1.0 6.0 0.00 0.00 0.00 69 1008.1
20260509212140 69 332 1.0 6.0 0.00 0.00 0.00 68 1008.1
20260509212039 69 322 2.0 6.0 0.00 0.00 0.00 68 1008.1
20260509211936 69 329 2.0 6.0 0.00 0.00 0.00 69 1008.1
20260509211855 69 328 3.0 6.0 0.00 0.00 0.00 69 1008.1
20260509211744 69 329 2.0 6.0 0.00 0.00 0.00 69 1008.1
20260509211657 69 336 0.0 6.0 0.00 0.00 0.00 68 1008.1
20260509211537 69 333 0.0 6.0 0.00 0.00 0.00 68 1008.1
20260509211436 69 335 3.0 8.0 0.00 0.00 0.00 67 1008.1
20260509211335 69 343 4.0 8.0 0.00 0.00 0.00 67 1008.2
20260509211235 69 339 5.0 8.0 0.00 0.00 0.00 67 1008.2
20260509211132 69 340 4.0 8.0 0.00 0.00 0.00 67 1008.2
20260509211050 69 340 2.0 8.0 0.00 0.00 0.00 68 1008.2
20260509210948 69 342 2.0 8.0 0.00 0.00 0.00 68 1008.2
20260509210847 69 340 5.0 8.0 0.00 0.00 0.00 67 1008.2
20260509210749 69 318 4.0 8.0 0.00 0.00 0.00 68 1008.2
20260509210631 69 323 5.0 8.0 0.00 0.00 0.00 68 1008.2
20260509210533 69 326 5.0 8.0 0.00 0.00 0.00 68 1008.2
20260509210432 69 320 4.0 7.0 0.00 0.00 0.00 69 1008.2
20260509210352 69 337 2.0 6.0 0.00 0.00 0.00 69 1008.2
20260509210253 69 339 2.0 6.0 0.00 0.00 0.00 68 1008.2
20260509210224 69 322 1.0 6.0 0.00 0.00 0.00 69 1008.2
20260509210038 69 330 3.0 6.0 0.00 0.00 0.00 68 1008.2
20260509205941 69 328 4.0 6.0 0.00 0.00 0.00 68 1008.2
20260509205900 69 330 3.0 6.0 0.00 0.00 0.00 69 1008.3
20260509205738 69 333 1.0 6.0 0.00 0.00 0.00 70 1008.3
20260509205638 69 333 1.0 6.0 0.00 0.00 0.00 68 1008.3
20260509205538 69 318 2.0 7.0 0.00 0.00 0.00 68 1008.3
20260509205457 69 330 2.0 8.0 0.00 0.00 0.00 66 1008.3
20260509205334 69 333 2.0 9.0 0.00 0.00 0.00 66 1008.3
20260509205233 69 326 2.0 9.0 0.00 0.00 0.00 67 1008.3
20260509205135 69 332 0.0 9.0 0.00 0.00 0.00 67 1008.3
20260509205034 69 329 1.0 9.0 0.00 0.00 0.00 67 1008.3
20260509204933 69 333 4.0 9.0 0.00 0.00 0.00 67 1008.3
20260509204852 69 329 5.0 9.0 0.00 0.00 0.00 67 1008.3
20260509204809 69 329 4.0 9.0 0.00 0.00 0.00 68 1008.3
20260509204658 69 330 5.0 11.0 0.00 0.00 0.00 67 1008.3
20260509204537 69 329 6.0 12.0 0.00 0.00 0.00 67 1008.3
20260509204436 69 326 2.0 12.0 0.00 0.00 0.00 67 1008.3
20260509204338 69 330 3.0 12.0 0.00 0.00 0.00 67 1008.3
20260509204240 69 329 2.0 12.0 0.00 0.00 0.00 67 1008.3
20260509204139 69 328 2.0 13.0 0.00 0.00 0.00 68 1008.3
20260509204037 69 332 2.0 13.0 0.00 0.00 0.00 68 1008.3
20260509203936 69 322 3.0 13.0 0.00 0.00 0.00 68 1008.3
20260509203834 69 289 5.0 13.0 0.00 0.00 0.00 68 1008.3
20260509203737 69 329 7.0 13.0 0.00 0.00 0.00 68 1008.3
20260509203634 69 325 8.0 13.0 0.00 0.00 0.00 68 1008.3
20260509203532 69 325 7.0 13.0 0.00 0.00 0.00 68 1008.3
20260509203430 69 322 7.0 13.0 0.00 0.00 0.00 68 1008.3
20260509203329 69 298 5.0 13.0 0.00 0.00 0.00 68 1008.3
20260509203300 69 325 7.0 13.0 0.00 0.00 0.00 68 1008.3
20260509203150 69 319 5.0 10.0 0.00 0.00 0.00 69 1008.3
20260509203027 69 328 4.0 10.0 0.00 0.00 0.00 67 1008.3
20260509202929 69 329 4.0 10.0 0.00 0.00 0.00 67 1008.3
20260509202826 69 330 5.0 10.0 0.00 0.00 0.00 67 1008.5
20260509202725 69 330 3.0 10.0 0.00 0.00 0.00 68 1008.5
20260509202624 69 320 7.0 10.0 0.00 0.00 0.00 68 1008.5
20260509202542 69 309 7.0 10.0 0.00 0.00 0.00 69 1008.5
20260509202440 69 313 6.0 8.0 0.00 0.00 0.00 69 1008.5
20260509202358 69 320 4.0 8.0 0.00 0.00 0.00 69 1008.5
20260509202241 69 320 3.0 7.0 0.00 0.00 0.00 69 1008.5
20260509202139 69 329 2.0 8.0 0.00 0.00 0.00 68 1008.5
20260509202058 69 319 3.0 8.0 0.00 0.00 0.00 69 1008.5
20260509201935 69 329 3.0 10.0 0.00 0.00 0.00 69 1008.5
20260509201834 69 325 2.0 13.0 0.00 0.00 0.00 69 1008.5
20260509201743 69 326 5.0 13.0 0.00 0.00 0.00 69 1008.5
20260509201653 69 299 3.0 13.0 0.00 0.00 0.00 69 1008.5
20260509201530 69 318 3.0 13.0 0.00 0.00 0.00 70 1008.5
20260509201452 69 309 4.0 13.0 0.00 0.00 0.00 69 1008.5
20260509201330 69 326 5.0 13.0 0.00 0.00 0.00 69 1008.4
20260509201228 69 328 4.0 13.0 0.00 0.00 0.00 68 1008.4
20260509201146 69 323 5.0 13.0 0.00 0.00 0.00 68 1008.4
20260509201105 69 325 7.0 13.0 0.00 0.00 0.00 69 1008.4
20260509201003 69 326 5.0 13.0 0.00 0.00 0.00 70 1008.4
20260509200840 69 328 6.0 11.0 0.00 0.00 0.00 69 1008.4
20260509200737 69 294 5.0 10.0 0.00 0.00 0.00 68 1008.4
20260509200640 69 333 2.0 10.0 0.00 0.00 0.00 68 1008.4
20260509200539 69 325 1.0 10.0 0.00 0.00 0.00 69 1008.4
20260509200438 69 329 3.0 10.0 0.00 0.00 0.00 70 1008.4
20260509200357 69 329 3.0 10.0 0.00 0.00 0.00 70 1008.4
20260509200254 69 316 2.0 10.0 0.00 0.00 0.00 70 1008.4
20260509200225 69 316 3.0 10.0 0.00 0.00 0.00 69 1008.4
20260509200041 69 329 4.0 10.0 0.00 0.00 0.00 71 1008.4
20260509195940 69 326 6.0 10.0 0.00 0.00 0.00 71 1008.4
20260509195858 69 328 4.0 8.0 0.00 0.00 0.00 70 1008.3
20260509195740 69 320 2.0 7.0 0.00 0.00 0.00 70 1008.3
20260509195639 69 322 3.0 8.0 0.00 0.00 0.00 69 1008.3
20260509195537 69 326 3.0 8.0 0.00 0.00 0.00 69 1008.3
20260509195456 69 329 4.0 8.0 0.00 0.00 0.00 68 1008.3
20260509195335 69 330 1.0 8.0 0.00 0.00 0.00 68 1008.3
20260509195234 69 329 1.0 8.0 0.00 0.00 0.00 69 1008.3
20260509195133 69 329 2.0 8.0 0.00 0.00 0.00 69 1008.3
20260509195034 69 329 3.0 8.0 0.00 0.00 0.00 70 1008.3
20260509194932 69 326 4.0 8.0 0.00 0.00 0.00 69 1008.3
20260509194831 69 326 4.0 8.0 0.00 0.00 0.00 69 1008.3
20260509194731 69 329 5.0 8.0 0.00 0.00 0.00 69 1008.3
20260509194700 69 329 4.0 7.0 0.00 0.00 0.00 69 1008.3
20260509194539 69 313 3.0 8.0 0.00 0.00 0.00 68 1008.3
20260509194437 69 329 3.0 8.0 0.00 0.00 0.00 68 1008.3
20260509194355 69 328 1.0 8.0 0.00 0.00 0.00 68 1008.3
20260509194257 69 313 3.0 8.0 0.00 0.00 0.00 68 1008.3
20260509194134 69 329 2.0 8.0 0.00 0.00 0.00 68 1008.3
20260509194052 69 312 1.0 8.0 0.00 0.00 0.00 68 1008.3
20260509193931 69 329 3.0 8.0 0.00 0.00 0.00 68 1008.3
20260509193832 69 325 3.0 8.0 0.00 0.00 0.00 68 1008.3
20260509193731 69 325 5.0 8.0 0.00 0.00 0.00 69 1008.3
20260509193633 69 329 4.0 8.0 0.00 0.00 0.00 68 1008.3
20260509193535 69 329 4.0 8.0 0.00 0.00 0.00 69 1008.3
20260509193434 69 329 5.0 8.0 0.00 0.00 0.00 68 1008.3
20260509193332 69 326 5.0 8.0 0.00 0.00 0.00 69 1008.3
20260509193251 69 320 5.0 7.0 0.00 0.00 0.00 69 1008.3
20260509193224 69 328 4.0 7.0 0.00 0.00 0.00 69 1008.3
20260509193040 69 330 3.0 7.0 0.00 0.00 0.00 67 1008.3
20260509192939 69 289 1.0 6.0 0.00 0.00 0.00 68 1008.3
20260509192837 69 328 0.0 6.0 0.00 0.00 0.00 68 1008.5
20260509192740 70 329 2.0 6.0 0.00 0.00 0.00 67 1008.5
20260509192639 70 329 4.0 6.0 0.00 0.00 0.00 68 1008.5
20260509192539 70 329 2.0 6.0 0.00 0.00 0.00 68 1008.5
20260509192436 70 329 1.0 10.0 0.00 0.00 0.00 68 1008.5
20260509192335 70 330 2.0 10.0 0.00 0.00 0.00 68 1008.5
20260509192234 70 329 3.0 10.0 0.00 0.00 0.00 69 1008.5
20260509192133 70 329 3.0 10.0 0.00 0.00 0.00 69 1008.5
20260509192034 70 305 3.0 10.0 0.00 0.00 0.00 69 1008.5
20260509191933 70 329 3.0 10.0 0.00 0.00 0.00 69 1008.5
20260509191831 70 329 5.0 10.0 0.00 0.00 0.00 68 1008.5
20260509191739 70 325 2.0 10.0 0.00 0.00 0.00 68 1008.5
20260509191648 70 328 5.0 10.0 0.00 0.00 0.00 68 1008.5
20260509191526 70 325 3.0 9.0 0.00 0.00 0.00 68 1008.5
20260509191424 70 325 2.0 9.0 0.00 0.00 0.00 67 1008.5
20260509191342 70 326 3.0 9.0 0.00 0.00 0.00 68 1008.6
20260509191224 69 328 4.0 9.0 0.00 0.00 0.00 69 1008.6
20260509191144 69 311 6.0 9.0 0.00 0.00 0.00 70 1008.6
20260509191042 69 328 5.0 9.0 0.00 0.00 0.00 69 1008.6
20260509190940 69 330 1.0 6.0 0.00 0.00 0.00 69 1008.6
20260509190838 69 328 1.0 10.0 0.00 0.00 0.00 69 1008.6
20260509190736 69 312 1.0 10.0 0.00 0.00 0.00 70 1008.6
20260509190635 69 328 2.0 10.0 0.00 0.00 0.00 69 1008.6
20260509190539 69 326 2.0 10.0 0.00 0.00 0.00 69 1008.6
20260509190458 69 329 2.0 10.0 0.00 0.00 0.00 70 1008.6
20260509190355 69 328 1.0 10.0 0.00 0.00 0.00 70 1008.6
20260509190244 69 325 3.0 10.0 0.00 0.00 0.00 71 1008.6
20260509190153 69 328 5.0 10.0 0.00 0.00 0.00 70 1008.6
20260509190049 69 319 6.0 10.0 0.00 0.00 0.00 69 1008.6
20260509185925 69 329 1.0 10.0 0.00 0.00 0.00 68 1008.6
20260509185844 69 326 3.0 10.0 0.00 0.00 0.00 68 1008.8
20260509185727 69 329 3.0 10.0 0.00 0.00 0.00 69 1008.8
20260509185624 69 325 7.0 10.0 0.00 0.00 0.00 70 1008.8
20260509185543 69 325 5.0 8.0 0.00 0.00 0.00 69 1008.8
20260509185441 69 328 5.0 11.0 0.00 0.00 0.00 70 1008.8
20260509185400 69 328 6.0 11.0 0.00 0.00 0.00 70 1008.8
20260509185235 69 323 4.0 11.0 0.00 0.00 0.00 70 1008.8
20260509185133 69 326 2.0 11.0 0.00 0.00 0.00 70 1008.8
20260509185054 69 322 2.0 11.0 0.00 0.00 0.00 70 1008.8
20260509184932 69 329 3.0 11.0 0.00 0.00 0.00 70 1008.8
20260509184835 69 319 3.0 11.0 0.00 0.00 0.00 69 1008.8
20260509184740 69 319 4.0 11.0 0.00 0.00 0.00 69 1008.8
20260509184649 69 322 7.0 11.0 0.00 0.00 0.00 70 1008.8
20260509184526 69 292 5.0 11.0 0.00 0.00 0.00 71 1008.8
20260509184425 69 330 7.0 12.0 0.00 0.00 0.00 70 1008.8
20260509184328 69 313 3.0 12.0 0.00 0.00 0.00 69 1008.9
20260509184226 69 329 4.0 12.0 0.00 0.00 0.00 70 1008.9
20260509184129 69 323 3.0 12.0 0.00 0.00 0.00 70 1008.9
20260509184047 69 318 4.0 12.0 0.00 0.00 0.00 70 1008.9
20260509183924 69 328 0.0 12.0 0.00 0.00 0.00 70 1008.9
20260509183824 69 295 6.0 12.0 0.00 0.00 0.00 70 1008.9
20260509183742 69 323 6.0 12.0 0.00 0.00 0.00 70 1008.9
20260509183701 69 308 7.0 12.0 0.00 0.00 0.00 70 1008.9
20260509183539 69 296 1.0 9.0 0.00 0.00 0.00 70 1008.9
20260509183436 69 329 1.0 9.0 0.00 0.00 0.00 70 1008.9
20260509183335 69 329 5.0 9.0 0.00 0.00 0.00 71 1008.9
20260509183236 69 326 5.0 8.0 0.00 0.00 0.00 70 1008.9
20260509183205 69 315 3.0 8.0 0.00 0.00 0.00 70 1008.9
20260509183042 69 325 2.0 8.0 0.00 0.00 0.00 70 1008.9
20260509182941 69 294 5.0 8.0 0.00 0.00 0.00 69 1008.9
20260509182839 69 326 3.0 11.0 0.00 0.00 0.00 69 1009.0
20260509182737 69 309 3.0 11.0 0.00 0.00 0.00 69 1009.0
20260509182636 69 304 3.0 11.0 0.00 0.00 0.00 68 1009.0
20260509182538 69 329 4.0 11.0 0.00 0.00 0.00 68 1009.0
20260509182437 69 309 4.0 11.0 0.00 0.00 0.00 68 1009.0
20260509182334 69 289 2.0 11.0 0.00 0.00 0.00 68 1009.0
20260509182233 69 315 4.0 11.0 0.00 0.00 0.00 68 1009.0
20260509182130 69 299 5.0 11.0 0.00 0.00 0.00 68 1009.0
20260509182028 69 309 7.0 11.0 0.00 0.00 0.00 68 1009.0
20260509181931 69 308 5.0 11.0 0.00 0.00 0.00 69 1009.0
20260509181829 69 316 1.0 11.0 0.00 0.00 0.00 69 1009.0
20260509181727 69 316 0.0 11.0 0.00 0.00 0.00 70 1009.0
20260509181658 69 322 1.0 11.0 0.00 0.00 0.00 70 1009.0
20260509181556 69 322 2.0 11.0 0.00 0.00 0.00 69 1009.0
20260509181453 69 312 4.0 11.0 0.00 0.00 0.00 70 1009.0
20260509181331 69 278 2.0 11.0 0.00 0.00 0.00 70 1008.9
20260509181229 69 280 4.0 11.0 0.00 0.00 0.00 70 1008.9
20260509181135 69 275 8.0 11.0 0.00 0.00 0.00 70 1008.9
20260509181033 69 287 3.0 11.0 0.00 0.00 0.00 71 1008.9
20260509180931 69 277 2.0 11.0 0.00 0.00 0.00 71 1008.9
20260509180832 68 323 6.0 11.0 0.00 0.00 0.00 71 1008.9
20260509180731 68 328 3.0 11.0 0.00 0.00 0.00 71 1008.9
20260509180629 68 299 2.0 11.0 0.00 0.00 0.00 70 1008.9
20260509180528 68 315 2.0 11.0 0.00 0.00 0.00 71 1008.9
20260509180431 68 315 6.0 11.0 0.00 0.00 0.00 71 1008.9
20260509180331 68 285 8.0 11.0 0.00 0.00 0.00 71 1008.9
20260509180241 68 319 8.0 10.0 0.00 0.00 0.00 71 1008.9
20260509180150 68 315 5.0 9.0 0.00 0.00 0.00 72 1008.9
20260509180048 68 329 3.0 9.0 0.00 0.00 0.00 72 1008.9
20260509175925 68 329 7.0 9.0 0.00 0.00 0.00 72 1008.9
20260509175824 68 329 5.0 8.0 0.00 0.00 0.00 71 1009.0
20260509175727 68 330 4.0 7.0 0.00 0.00 0.00 71 1009.0
20260509175625 67 329 3.0 7.0 0.00 0.00 0.00 72 1009.0
20260509175543 67 312 3.0 7.0 0.00 0.00 0.00 72 1009.0
20260509175440 67 316 0.0 6.0 0.00 0.00 0.00 72 1009.0
20260509175340 67 326 1.0 10.0 0.00 0.00 0.00 72 1009.0
20260509175239 67 329 2.0 10.0 0.00 0.00 0.00 71 1009.0
20260509175136 67 292 1.0 10.0 0.00 0.00 0.00 70 1009.0
20260509175054 67 304 0.0 10.0 0.00 0.00 0.00 69 1009.0
20260509174951 67 313 1.0 10.0 0.00 0.00 0.00 70 1009.0
20260509174832 67 328 4.0 10.0 0.00 0.00 0.00 71 1009.0
20260509174743 68 309 2.0 10.0 0.00 0.00 0.00 70 1009.0
20260509174651 68 312 3.0 10.0 0.00 0.00 0.00 72 1009.0
20260509174530 68 328 5.0 10.0 0.00 0.00 0.00 72 1009.0
20260509174428 68 316 5.0 10.0 0.00 0.00 0.00 73 1009.0
20260509174327 67 316 4.0 9.0 0.00 0.00 0.00 73 1008.7
20260509174224 67 287 5.0 9.0 0.00 0.00 0.00 72 1008.7
20260509174127 67 323 6.0 9.0 0.00 0.00 0.00 71 1008.7
20260509174027 67 326 5.0 8.0 0.00 0.00 0.00 72 1008.7
20260509173945 67 325 3.0 7.0 0.00 0.00 0.00 73 1008.7
20260509173843 67 315 4.0 7.0 0.00 0.00 0.00 72 1008.7
20260509173742 67 316 4.0 7.0 0.00 0.00 0.00 72 1008.7
20260509173640 67 329 5.0 7.0 0.00 0.00 0.00 73 1008.7
20260509173600 67 308 4.0 7.0 0.00 0.00 0.00 72 1008.7
20260509173436 67 323 3.0 6.0 0.00 0.00 0.00 71 1008.7
20260509173353 67 312 2.0 6.0 0.00 0.00 0.00 71 1008.7
20260509173235 67 301 2.0 6.0 0.00 0.00 0.00 71 1008.7
20260509173205 67 316 2.0 6.0 0.00 0.00 0.00 71 1008.7
20260509173021 67 295 1.0 6.0 0.00 0.00 0.00 70 1008.7
20260509172943 67 325 2.0 6.0 0.00 0.00 0.00 71 1008.7
20260509172841 67 320 4.0 6.0 0.00 0.00 0.00 71 1009.0
20260509172739 68 320 5.0 6.0 0.00 0.00 0.00 72 1009.0
20260509172637 68 326 2.0 8.0 0.00 0.00 0.00 71 1009.0
20260509172539 68 284 0.0 11.0 0.00 0.00 0.00 71 1009.0
20260509172457 68 318 0.0 12.0 0.00 0.00 0.00 71 1009.0
20260509172334 68 308 1.0 13.0 0.00 0.00 0.00 70 1009.0
20260509172233 68 308 4.0 13.0 0.00 0.00 0.00 70 1009.0
20260509172131 68 318 3.0 13.0 0.00 0.00 0.00 70 1009.0
20260509172029 68 294 1.0 13.0 0.00 0.00 0.00 70 1009.0
20260509171928 68 329 1.0 13.0 0.00 0.00 0.00 70 1009.0
20260509171831 68 329 6.0 13.0 0.00 0.00 0.00 71 1009.0
20260509171729 68 326 7.0 13.0 0.00 0.00 0.00 71 1009.0
20260509171658 68 325 8.0 13.0 0.00 0.00 0.00 71 1009.0
20260509171535 68 329 9.0 13.0 0.00 0.00 0.00 70 1009.0
20260509171434 68 305 3.0 11.0 0.00 0.00 0.00 69 1009.0
20260509171333 68 320 2.0 11.0 0.00 0.00 0.00 70 1009.2
20260509171231 68 311 6.0 11.0 0.00 0.00 0.00 71 1009.2
20260509171133 68 325 5.0 11.0 0.00 0.00 0.00 71 1009.2
20260509171032 68 329 5.0 8.0 0.00 0.00 0.00 71 1009.2
20260509170931 68 315 3.0 8.0 0.00 0.00 0.00 71 1009.2
20260509170831 68 323 3.0 8.0 0.00 0.00 0.00 70 1009.2
20260509170749 68 326 4.0 9.0 0.00 0.00 0.00 70 1009.2
20260509170626 68 329 5.0 9.0 0.00 0.00 0.00 70 1009.2
20260509170525 68 313 2.0 9.0 0.00 0.00 0.00 70 1009.2
20260509170427 68 329 1.0 9.0 0.00 0.00 0.00 69 1009.2
20260509170326 68 328 1.0 10.0 0.00 0.00 0.00 70 1009.2
20260509170236 68 329 2.0 11.0 0.00 0.00 0.00 70 1009.2
20260509170146 68 299 3.0 11.0 0.00 0.00 0.00 71 1009.2
20260509170043 68 329 3.0 11.0 0.00 0.00 0.00 71 1009.2
20260509165941 68 329 6.0 11.0 0.00 0.00 0.00 72 1009.2
20260509165841 68 329 4.0 12.0 0.00 0.00 0.00 72 1009.4
20260509165738 68 295 3.0 12.0 0.00 0.00 0.00 71 1009.4
20260509165657 68 311 4.0 12.0 0.00 0.00 0.00 72 1009.4
20260509165538 68 325 3.0 12.0 0.00 0.00 0.00 72 1009.4
20260509165435 68 329 7.0 12.0 0.00 0.00 0.00 72 1009.4
20260509165334 68 330 4.0 12.0 0.00 0.00 0.00 71 1009.4
20260509165233 68 318 4.0 12.0 0.00 0.00 0.00 71 1009.4
20260509165130 68 329 3.0 12.0 0.00 0.00 0.00 71 1009.4
20260509165029 68 308 6.0 12.0 0.00 0.00 0.00 71 1009.4
20260509164948 68 294 7.0 12.0 0.00 0.00 0.00 71 1009.4
20260509164830 67 329 8.0 12.0 0.00 0.00 0.00 71 1009.4
20260509164749 67 328 7.0 16.0 0.00 0.00 0.00 71 1009.4
20260509164657 67 326 6.0 16.0 0.00 0.00 0.00 71 1009.4
20260509164538 67 325 5.0 16.0 0.00 0.00 0.00 72 1009.4
20260509164457 67 308 6.0 16.0 0.00 0.00 0.00 72 1009.4
20260509164332 67 329 6.0 16.0 0.00 0.00 0.00 72 1009.4
20260509164231 67 326 6.0 16.0 0.00 0.00 0.00 72 1009.4
20260509164129 67 323 3.0 16.0 0.00 0.00 0.00 72 1009.4
20260509164048 67 256 4.0 16.0 0.00 0.00 0.00 72 1009.4
20260509163930 67 330 9.0 16.0 0.00 0.00 0.00 71 1009.4
20260509163828 67 312 10.0 16.0 0.00 0.00 0.00 71 1009.4
20260509163747 67 330 7.0 16.0 0.00 0.00 0.00 72 1009.4
20260509163626 67 308 10.0 16.0 0.00 0.00 0.00 73 1009.4
20260509163527 67 306 5.0 11.0 0.00 0.00 0.00 73 1009.4
20260509163426 67 284 7.0 11.0 0.00 0.00 0.00 73 1009.4
20260509163324 67 328 4.0 10.0 0.00 0.00 0.00 73 1009.4
20260509163228 67 309 4.0 10.0 0.00 0.00 0.00 72 1009.4
20260509163200 67 294 2.0 10.0 0.00 0.00 0.00 72 1009.4
20260509163038 67 326 2.0 10.0 0.00 0.00 0.00 73 1009.4
20260509162937 67 330 4.0 10.0 0.00 0.00 0.00 74 1009.4
20260509162835 67 305 4.0 10.0 0.00 0.00 0.00 73 1009.4
20260509162732 67 305 6.0 10.0 0.00 0.00 0.00 73 1009.4
20260509162631 67 305 2.0 10.0 0.00 0.00 0.00 74 1009.4
20260509162535 66 315 1.0 10.0 0.00 0.00 0.00 73 1009.4
20260509162432 66 309 4.0 10.0 0.00 0.00 0.00 73 1009.4
20260509162332 66 330 4.0 10.0 0.00 0.00 0.00 74 1009.4
20260509162231 66 306 6.0 10.0 0.00 0.00 0.00 75 1009.4
20260509162130 66 320 5.0 10.0 0.00 0.00 0.00 75 1009.4
20260509162028 66 329 5.0 8.0 0.00 0.00 0.00 75 1009.4
20260509161927 66 311 5.0 8.0 0.00 0.00 0.00 74 1009.4
20260509161828 66 311 1.0 7.0 0.00 0.00 0.00 74 1009.4
20260509161738 66 329 3.0 7.0 0.00 0.00 0.00 74 1009.4
20260509161647 66 315 3.0 7.0 0.00 0.00 0.00 74 1009.4
20260509161525 66 308 3.0 7.0 0.00 0.00 0.00 75 1009.4
20260509161443 66 280 5.0 7.0 0.00 0.00 0.00 74 1009.4
20260509161341 66 329 3.0 9.0 0.00 0.00 0.00 74 1009.4
20260509161238 66 328 3.0 9.0 0.00 0.00 0.00 74 1009.4
20260509161139 66 329 1.0 9.0 0.00 0.00 0.00 74 1009.4
20260509161041 66 325 2.0 9.0 0.00 0.00 0.00 74 1009.4
20260509160939 66 326 3.0 9.0 0.00 0.00 0.00 74 1009.4
20260509160858 66 292 1.0 9.0 0.00 0.00 0.00 74 1009.4
20260509160735 66 295 3.0 9.0 0.00 0.00 0.00 74 1009.4
20260509160634 66 296 6.0 9.0 0.00 0.00 0.00 74 1009.4
20260509160532 66 309 5.0 9.0 0.00 0.00 0.00 74 1009.4
20260509160430 66 288 1.0 8.0 0.00 0.00 0.00 74 1009.4
20260509160333 66 302 4.0 8.0 0.00 0.00 0.00 75 1009.4
20260509160231 66 312 2.0 8.0 0.00 0.00 0.00 74 1009.4
20260509160201 66 288 4.0 8.0 0.00 0.00 0.00 74 1009.4
20260509160038 66 326 2.0 7.0 0.00 0.00 0.00 74 1009.4
20260509155957 66 329 3.0 7.0 0.00 0.00 0.00 74 1009.4
20260509155834 66 278 5.0 7.0 0.00 0.00 0.00 75 1009.3
20260509155732 66 316 6.0 8.0 0.00 0.00 0.00 75 1009.3
20260509155629 66 308 5.0 8.0 0.00 0.00 0.00 75 1009.3
20260509155532 66 316 4.0 8.0 0.00 0.00 0.00 74 1009.3
20260509155430 66 322 4.0 8.0 0.00 0.00 0.00 74 1009.3
20260509155328 65 295 1.0 8.0 0.00 0.00 0.00 74 1009.3
20260509155226 65 329 2.0 8.0 0.00 0.00 0.00 75 1009.3
20260509155124 65 326 3.0 8.0 0.00 0.00 0.00 76 1009.3
20260509155042 65 316 3.0 8.0 0.00 0.00 0.00 75 1009.3
20260509154925 65 295 5.0 8.0 0.00 0.00 0.00 76 1009.3
20260509154843 65 326 4.0 8.0 0.00 0.00 0.00 76 1009.3
20260509154741 65 325 4.0 8.0 0.00 0.00 0.00 76 1009.3
20260509154708 65 318 3.0 8.0 0.00 0.00 0.00 76 1009.3
20260509154546 65 329 5.0 8.0 0.00 0.00 0.00 77 1009.3
20260509154443 65 325 5.0 8.0 0.00 0.00 0.00 77 1009.3
20260509154341 65 330 5.0 7.0 0.00 0.00 0.00 77 1009.5
20260509154240 64 280 2.0 7.0 0.00 0.00 0.00 77 1009.5
20260509154138 64 304 1.0 7.0 0.00 0.00 0.00 76 1009.5
20260509154035 64 320 1.0 7.0 0.00 0.00 0.00 77 1009.5
20260509153937 64 285 2.0 7.0 0.00 0.00 0.00 77 1009.5
20260509153835 64 281 5.0 7.0 0.00 0.00 0.00 79 1009.5
20260509153734 64 325 6.0 7.0 0.00 0.00 0.00 79 1009.5
20260509153633 64 313 5.0 7.0 0.00 0.00 0.00 78 1009.5
20260509153531 64 309 4.0 7.0 0.00 0.00 0.00 78 1009.5
20260509153451 64 313 3.0 7.0 0.00 0.00 0.00 78 1009.5
20260509153328 64 308 3.0 7.0 0.00 0.00 0.00 79 1009.5
20260509153231 64 304 3.0 7.0 0.00 0.00 0.00 79 1009.5
20260509153202 64 326 2.0 7.0 0.00 0.00 0.00 79 1009.5
20260509153038 63 325 4.0 7.0 0.00 0.00 0.00 80 1009.5
20260509152937 63 284 5.0 7.0 0.00 0.00 0.00 80 1009.5
20260509152837 63 298 5.0 7.0 0.00 0.00 0.00 80 1009.6
20260509152756 63 313 3.0 7.0 0.00 0.00 0.00 79 1009.6